| time (UTC) | temp C | wind direction | speed KPH | gust KPH | rain 1hr cm | rain 24hr cm | rain mn cm | humidity % | barometer mb |
| 20260504224137 | 22 | 291 | 11.3 | 27.4 | 0.00 | 0.00 | 0.00 | 43 | 1009.5 |
| 20260504224056 | 22 | 257 | 16.1 | 27.4 | 0.00 | 0.00 | 0.00 | 43 | 1009.5 |
| 20260504223932 | 22 | 280 | 11.3 | 27.4 | 0.00 | 0.00 | 0.00 | 43 | 1009.5 |
| 20260504223851 | 22 | 224 | 16.1 | 29.0 | 0.00 | 0.00 | 0.00 | 43 | 1009.5 |
| 20260504223729 | 22 | 257 | 8.0 | 29.0 | 0.00 | 0.00 | 0.00 | 43 | 1009.5 |
| 20260504223627 | 22 | 282 | 14.5 | 29.0 | 0.00 | 0.00 | 0.00 | 43 | 1009.5 |
| 20260504223530 | 22 | 304 | 16.1 | 29.0 | 0.00 | 0.00 | 0.00 | 43 | 1009.5 |
| 20260504223429 | 22 | 268 | 8.0 | 29.0 | 0.00 | 0.00 | 0.00 | 43 | 1009.5 |
| 20260504223328 | 22 | 298 | 4.8 | 29.0 | 0.00 | 0.00 | 0.00 | 43 | 1009.5 |
| 20260504223227 | 22 | 305 | 11.3 | 29.0 | 0.00 | 0.00 | 0.00 | 43 | 1009.5 |
| 20260504223157 | 22 | 291 | 12.9 | 29.0 | 0.00 | 0.00 | 0.00 | 43 | 1009.5 |
| 20260504223033 | 22 | 304 | 17.7 | 29.0 | 0.00 | 0.00 | 0.00 | 44 | 1009.5 |
| 20260504222931 | 22 | 304 | 12.9 | 29.0 | 0.00 | 0.00 | 0.00 | 44 | 1009.5 |
| 20260504222850 | 22 | 292 | 19.3 | 29.0 | 0.00 | 0.00 | 0.00 | 45 | 1009.4 |
| 20260504222732 | 22 | 280 | 11.3 | 27.4 | 0.00 | 0.00 | 0.00 | 45 | 1009.4 |
| 20260504222631 | 22 | 298 | 9.7 | 40.2 | 0.00 | 0.00 | 0.00 | 45 | 1009.4 |
| 20260504222530 | 22 | 285 | 12.9 | 40.2 | 0.00 | 0.00 | 0.00 | 45 | 1009.4 |
| 20260504222430 | 22 | 248 | 6.4 | 40.2 | 0.00 | 0.00 | 0.00 | 45 | 1009.4 |
| 20260504222328 | 22 | 292 | 16.1 | 40.2 | 0.00 | 0.00 | 0.00 | 44 | 1009.4 |
| 20260504222226 | 22 | 319 | 12.9 | 40.2 | 0.00 | 0.00 | 0.00 | 44 | 1009.4 |
| 20260504222129 | 22 | 270 | 17.7 | 40.2 | 0.00 | 0.00 | 0.00 | 44 | 1009.4 |
| 20260504222030 | 22 | 309 | 17.7 | 40.2 | 0.00 | 0.00 | 0.00 | 44 | 1009.4 |
| 20260504221929 | 22 | 268 | 14.5 | 40.2 | 0.00 | 0.00 | 0.00 | 44 | 1009.4 |
| 20260504221847 | 22 | 280 | 25.7 | 40.2 | 0.00 | 0.00 | 0.00 | 44 | 1009.4 |
| 20260504221745 | 22 | 264 | 16.1 | 33.8 | 0.00 | 0.00 | 0.00 | 44 | 1009.4 |
| 20260504221715 | 22 | 282 | 12.9 | 33.8 | 0.00 | 0.00 | 0.00 | 44 | 1009.4 |
| 20260504221531 | 22 | 248 | 14.5 | 33.8 | 0.00 | 0.00 | 0.00 | 45 | 1009.4 |
| 20260504221430 | 22 | 271 | 16.1 | 33.8 | 0.00 | 0.00 | 0.00 | 45 | 1009.4 |
| 20260504221332 | 22 | 291 | 20.9 | 33.8 | 0.00 | 0.00 | 0.00 | 45 | 1009.5 |
| 20260504221250 | 22 | 302 | 19.3 | 33.8 | 0.00 | 0.00 | 0.00 | 45 | 1009.5 |
| 20260504221127 | 22 | 308 | 16.1 | 33.8 | 0.00 | 0.00 | 0.00 | 45 | 1009.5 |
| 20260504221025 | 22 | 291 | 20.9 | 33.8 | 0.00 | 0.00 | 0.00 | 44 | 1009.5 |
| 20260504220924 | 22 | 292 | 9.7 | 33.8 | 0.00 | 0.00 | 0.00 | 44 | 1009.5 |
| 20260504220824 | 22 | 302 | 16.1 | 33.8 | 0.00 | 0.00 | 0.00 | 44 | 1009.5 |
| 20260504220743 | 22 | 320 | 16.1 | 33.8 | 0.00 | 0.00 | 0.00 | 44 | 1009.5 |
| 20260504220627 | 22 | 272 | 19.3 | 33.8 | 0.00 | 0.00 | 0.00 | 44 | 1009.5 |
| 20260504220526 | 22 | 272 | 16.1 | 33.8 | 0.00 | 0.00 | 0.00 | 44 | 1009.5 |
| 20260504220424 | 22 | 267 | 9.7 | 29.0 | 0.00 | 0.00 | 0.00 | 44 | 1009.5 |
| 20260504220323 | 22 | 330 | 14.5 | 29.0 | 0.00 | 0.00 | 0.00 | 44 | 1009.5 |
| 20260504220237 | 22 | 329 | 11.3 | 29.0 | 0.00 | 0.00 | 0.00 | 44 | 1009.5 |
| 20260504220148 | 22 | 304 | 12.9 | 29.0 | 0.00 | 0.00 | 0.00 | 43 | 1009.5 |
| 20260504220043 | 22 | 318 | 9.7 | 29.0 | 0.00 | 0.00 | 0.00 | 43 | 1009.5 |
| 20260504215926 | 22 | 301 | 11.3 | 29.0 | 0.00 | 0.00 | 0.00 | 42 | 1009.5 |
| 20260504215824 | 22 | 323 | 12.9 | 29.0 | 0.00 | 0.00 | 0.00 | 42 | 1009.5 |
| 20260504215743 | 22 | 308 | 17.7 | 29.0 | 0.00 | 0.00 | 0.00 | 42 | 1009.5 |
| 20260504215643 | 22 | 287 | 16.1 | 29.0 | 0.00 | 0.00 | 0.00 | 42 | 1009.5 |
| 20260504215541 | 22 | 313 | 11.3 | 20.9 | 0.00 | 0.00 | 0.00 | 42 | 1009.5 |
| 20260504215440 | 22 | 326 | 8.0 | 20.9 | 0.00 | 0.00 | 0.00 | 41 | 1009.5 |
| 20260504215359 | 22 | 306 | 11.3 | 22.5 | 0.00 | 0.00 | 0.00 | 40 | 1009.5 |
| 20260504215236 | 22 | 311 | 11.3 | 22.5 | 0.00 | 0.00 | 0.00 | 40 | 1009.5 |
| 20260504215159 | 22 | 251 | 11.3 | 22.5 | 0.00 | 0.00 | 0.00 | 39 | 1009.5 |
| 20260504215056 | 22 | 278 | 14.5 | 22.5 | 0.00 | 0.00 | 0.00 | 38 | 1009.5 |
| 20260504214933 | 22 | 325 | 12.9 | 27.4 | 0.00 | 0.00 | 0.00 | 39 | 1009.5 |
| 20260504214832 | 22 | 287 | 3.2 | 27.4 | 0.00 | 0.00 | 0.00 | 39 | 1009.5 |
| 20260504214800 | 22 | 305 | 9.7 | 30.6 | 0.00 | 0.00 | 0.00 | 39 | 1009.5 |
| 20260504214647 | 22 | 329 | 8.0 | 30.6 | 0.00 | 0.00 | 0.00 | 39 | 1009.5 |
| 20260504214524 | 22 | 318 | 12.9 | 30.6 | 0.00 | 0.00 | 0.00 | 38 | 1009.5 |
| 20260504214442 | 22 | 274 | 11.3 | 30.6 | 0.00 | 0.00 | 0.00 | 38 | 1009.5 |
| 20260504214325 | 22 | 304 | 12.9 | 30.6 | 0.00 | 0.00 | 0.00 | 38 | 1009.4 |
| 20260504214244 | 22 | 284 | 14.5 | 30.6 | 0.00 | 0.00 | 0.00 | 39 | 1009.4 |
| 20260504214142 | 22 | 322 | 14.5 | 30.6 | 0.00 | 0.00 | 0.00 | 40 | 1009.4 |
| 20260504214039 | 22 | 326 | 12.9 | 30.6 | 0.00 | 0.00 | 0.00 | 40 | 1009.4 |
| 20260504213938 | 22 | 308 | 16.1 | 30.6 | 0.00 | 0.00 | 0.00 | 41 | 1009.4 |
| 20260504213837 | 22 | 302 | 12.9 | 29.0 | 0.00 | 0.00 | 0.00 | 41 | 1009.4 |
| 20260504213735 | 22 | 312 | 14.5 | 29.0 | 0.00 | 0.00 | 0.00 | 41 | 1009.4 |
| 20260504213639 | 22 | 305 | 16.1 | 30.6 | 0.00 | 0.00 | 0.00 | 40 | 1009.4 |
| 20260504213537 | 22 | 329 | 14.5 | 30.6 | 0.00 | 0.00 | 0.00 | 41 | 1009.4 |
| 20260504213437 | 22 | 322 | 11.3 | 30.6 | 0.00 | 0.00 | 0.00 | 41 | 1009.4 |
| 20260504213336 | 22 | 316 | 16.1 | 30.6 | 0.00 | 0.00 | 0.00 | 41 | 1009.4 |
| 20260504213234 | 22 | 270 | 12.9 | 30.6 | 0.00 | 0.00 | 0.00 | 41 | 1009.4 |
| 20260504213205 | 22 | 322 | 12.9 | 30.6 | 0.00 | 0.00 | 0.00 | 41 | 1009.4 |
| 20260504213041 | 22 | 325 | 11.3 | 30.6 | 0.00 | 0.00 | 0.00 | 42 | 1009.4 |
| 20260504212925 | 22 | 217 | 16.1 | 32.2 | 0.00 | 0.00 | 0.00 | 41 | 1009.4 |
| 20260504212842 | 22 | 325 | 11.3 | 32.2 | 0.00 | 0.00 | 0.00 | 42 | 1009.6 |
| 20260504212741 | 22 | 302 | 8.0 | 38.6 | 0.00 | 0.00 | 0.00 | 41 | 1009.6 |
| 20260504212639 | 22 | 285 | 12.9 | 38.6 | 0.00 | 0.00 | 0.00 | 41 | 1009.6 |
| 20260504212538 | 22 | 328 | 9.7 | 38.6 | 0.00 | 0.00 | 0.00 | 41 | 1009.6 |
| 20260504212435 | 22 | 299 | 11.3 | 38.6 | 0.00 | 0.00 | 0.00 | 41 | 1009.6 |
| 20260504212333 | 22 | 287 | 14.5 | 38.6 | 0.00 | 0.00 | 0.00 | 41 | 1009.6 |
| 20260504212256 | 22 | 265 | 9.7 | 38.6 | 0.00 | 0.00 | 0.00 | 41 | 1009.6 |
| 20260504212132 | 22 | 261 | 9.7 | 38.6 | 0.00 | 0.00 | 0.00 | 40 | 1009.6 |
| 20260504212030 | 22 | 305 | 20.9 | 38.6 | 0.00 | 0.00 | 0.00 | 39 | 1009.6 |
| 20260504211930 | 22 | 246 | 24.1 | 38.6 | 0.00 | 0.00 | 0.00 | 40 | 1009.6 |
| 20260504211828 | 22 | 292 | 12.9 | 33.8 | 0.00 | 0.00 | 0.00 | 39 | 1009.6 |
| 20260504211726 | 22 | 296 | 14.5 | 33.8 | 0.00 | 0.00 | 0.00 | 39 | 1009.6 |
| 20260504211657 | 22 | 309 | 22.5 | 33.8 | 0.00 | 0.00 | 0.00 | 39 | 1009.6 |
| 20260504211538 | 22 | 318 | 17.7 | 33.8 | 0.00 | 0.00 | 0.00 | 40 | 1009.6 |
| 20260504211437 | 22 | 325 | 16.1 | 27.4 | 0.00 | 0.00 | 0.00 | 40 | 1009.6 |
| 20260504211336 | 22 | 316 | 11.3 | 27.4 | 0.00 | 0.00 | 0.00 | 40 | 1009.7 |
| 20260504211235 | 23 | 302 | 14.5 | 27.4 | 0.00 | 0.00 | 0.00 | 41 | 1009.7 |
| 20260504211132 | 22 | 284 | 9.7 | 27.4 | 0.00 | 0.00 | 0.00 | 41 | 1009.7 |
| 20260504211034 | 22 | 240 | 8.0 | 25.7 | 0.00 | 0.00 | 0.00 | 41 | 1009.7 |
| 20260504210932 | 23 | 236 | 11.3 | 25.7 | 0.00 | 0.00 | 0.00 | 41 | 1009.7 |
| 20260504210835 | 23 | 223 | 14.5 | 25.7 | 0.00 | 0.00 | 0.00 | 41 | 1009.7 |
| 20260504210753 | 23 | 316 | 16.1 | 32.2 | 0.00 | 0.00 | 0.00 | 41 | 1009.7 |
| 20260504210630 | 23 | 278 | 9.7 | 32.2 | 0.00 | 0.00 | 0.00 | 43 | 1009.7 |
| 20260504210528 | 23 | 315 | 12.9 | 32.2 | 0.00 | 0.00 | 0.00 | 44 | 1009.7 |
| 20260504210447 | 23 | 284 | 16.1 | 32.2 | 0.00 | 0.00 | 0.00 | 43 | 1009.7 |
| 20260504210324 | 23 | 323 | 16.1 | 32.2 | 0.00 | 0.00 | 0.00 | 42 | 1009.7 |
| 20260504210242 | 23 | 285 | 12.9 | 32.2 | 0.00 | 0.00 | 0.00 | 43 | 1009.7 |
| 20260504210212 | 23 | 240 | 6.4 | 32.2 | 0.00 | 0.00 | 0.00 | 43 | 1009.7 |
| 20260504210027 | 23 | 210 | 8.0 | 32.2 | 0.00 | 0.00 | 0.00 | 44 | 1009.7 |
| 20260504205950 | 23 | 254 | 16.1 | 32.2 | 0.00 | 0.00 | 0.00 | 44 | 1009.7 |
| 20260504205828 | 23 | 322 | 9.7 | 22.5 | 0.00 | 0.00 | 0.00 | 44 | 1009.8 |
| 20260504205726 | 23 | 329 | 8.0 | 22.5 | 0.00 | 0.00 | 0.00 | 44 | 1009.8 |
| 20260504205624 | 23 | 308 | 4.8 | 32.2 | 0.00 | 0.00 | 0.00 | 44 | 1009.8 |
| 20260504205541 | 23 | 305 | 9.7 | 32.2 | 0.00 | 0.00 | 0.00 | 44 | 1009.8 |
| 20260504205440 | 23 | 291 | 12.9 | 32.2 | 0.00 | 0.00 | 0.00 | 45 | 1009.8 |
| 20260504205338 | 23 | 322 | 14.5 | 32.2 | 0.00 | 0.00 | 0.00 | 45 | 1009.8 |
| 20260504205237 | 23 | 319 | 11.3 | 32.2 | 0.00 | 0.00 | 0.00 | 44 | 1009.8 |
| 20260504205139 | 23 | 304 | 4.8 | 32.2 | 0.00 | 0.00 | 0.00 | 44 | 1009.8 |
| 20260504205036 | 23 | 284 | 8.0 | 32.2 | 0.00 | 0.00 | 0.00 | 45 | 1009.8 |
| 20260504204935 | 23 | 274 | 12.9 | 32.2 | 0.00 | 0.00 | 0.00 | 45 | 1009.8 |
| 20260504204833 | 23 | 278 | 24.1 | 32.2 | 0.00 | 0.00 | 0.00 | 44 | 1009.8 |
| 20260504204743 | 23 | 319 | 4.8 | 20.9 | 0.00 | 0.00 | 0.00 | 45 | 1009.8 |
| 20260504204651 | 23 | 254 | 6.4 | 30.6 | 0.00 | 0.00 | 0.00 | 45 | 1009.8 |
| 20260504204528 | 23 | 328 | 9.7 | 30.6 | 0.00 | 0.00 | 0.00 | 44 | 1009.8 |
| 20260504204431 | 23 | 309 | 1.6 | 30.6 | 0.00 | 0.00 | 0.00 | 44 | 1009.8 |
| 20260504204350 | 23 | 261 | 9.7 | 30.6 | 0.00 | 0.00 | 0.00 | 44 | 1009.9 |
| 20260504204228 | 23 | 301 | 14.5 | 30.6 | 0.00 | 0.00 | 0.00 | 44 | 1009.9 |
| 20260504204126 | 23 | 322 | 12.9 | 30.6 | 0.00 | 0.00 | 0.00 | 44 | 1009.9 |
| 20260504204024 | 23 | 301 | 9.7 | 30.6 | 0.00 | 0.00 | 0.00 | 45 | 1009.9 |
| 20260504203944 | 23 | 329 | 8.0 | 30.6 | 0.00 | 0.00 | 0.00 | 44 | 1009.9 |
| 20260504203902 | 23 | 294 | 14.5 | 30.6 | 0.00 | 0.00 | 0.00 | 45 | 1009.9 |
| 20260504203739 | 23 | 288 | 11.3 | 22.5 | 0.00 | 0.00 | 0.00 | 45 | 1009.9 |
| 20260504203642 | 23 | 320 | 9.7 | 20.9 | 0.00 | 0.00 | 0.00 | 44 | 1009.9 |
| 20260504203539 | 23 | 302 | 9.7 | 20.9 | 0.00 | 0.00 | 0.00 | 44 | 1009.9 |
| 20260504203437 | 23 | 328 | 4.8 | 20.9 | 0.00 | 0.00 | 0.00 | 43 | 1009.9 |
| 20260504203336 | 23 | 268 | 8.0 | 20.9 | 0.00 | 0.00 | 0.00 | 44 | 1009.9 |
| 20260504203256 | 23 | 296 | 9.7 | 25.7 | 0.00 | 0.00 | 0.00 | 44 | 1009.9 |
| 20260504203226 | 23 | 323 | 11.3 | 25.7 | 0.00 | 0.00 | 0.00 | 44 | 1009.9 |
| 20260504203103 | 23 | 320 | 12.9 | 25.7 | 0.00 | 0.00 | 0.00 | 44 | 1009.9 |
| 20260504202924 | 23 | 326 | 8.0 | 29.0 | 0.00 | 0.00 | 0.00 | 44 | 1009.9 |
| 20260504202842 | 23 | 335 | 11.3 | 29.0 | 0.00 | 0.00 | 0.00 | 43 | 1010.1 |
| 20260504202741 | 23 | 271 | 11.3 | 29.0 | 0.00 | 0.00 | 0.00 | 44 | 1010.1 |
| 20260504202639 | 23 | 272 | 4.8 | 29.0 | 0.00 | 0.00 | 0.00 | 46 | 1010.1 |
| 20260504202538 | 23 | 230 | 9.7 | 29.0 | 0.00 | 0.00 | 0.00 | 45 | 1010.1 |
| 20260504202456 | 23 | 288 | 12.9 | 29.0 | 0.00 | 0.00 | 0.00 | 44 | 1010.1 |
| 20260504202334 | 23 | 291 | 8.0 | 29.0 | 0.00 | 0.00 | 0.00 | 44 | 1010.1 |
| 20260504202232 | 23 | 257 | 14.5 | 29.0 | 0.00 | 0.00 | 0.00 | 46 | 1010.1 |
| 20260504202155 | 23 | 328 | 17.7 | 29.0 | 0.00 | 0.00 | 0.00 | 46 | 1010.1 |
| 20260504202032 | 23 | 305 | 12.9 | 27.4 | 0.00 | 0.00 | 0.00 | 46 | 1010.1 |
| 20260504201932 | 23 | 315 | 12.9 | 24.1 | 0.00 | 0.00 | 0.00 | 47 | 1010.1 |
| 20260504201831 | 23 | 301 | 11.3 | 25.7 | 0.00 | 0.00 | 0.00 | 47 | 1010.1 |
| 20260504201656 | 23 | 329 | 3.2 | 25.7 | 0.00 | 0.00 | 0.00 | 46 | 1010.1 |
| 20260504201533 | 23 | 309 | 3.2 | 25.7 | 0.00 | 0.00 | 0.00 | 46 | 1010.1 |
| 20260504201431 | 23 | 229 | 6.4 | 25.7 | 0.00 | 0.00 | 0.00 | 46 | 1010.1 |
| 20260504201335 | 23 | 325 | 6.4 | 25.7 | 0.00 | 0.00 | 0.00 | 46 | 1010.0 |
| 20260504201234 | 23 | 330 | 6.4 | 25.7 | 0.00 | 0.00 | 0.00 | 46 | 1010.0 |
| 20260504201132 | 23 | 330 | 6.4 | 25.7 | 0.00 | 0.00 | 0.00 | 45 | 1010.0 |
| 20260504201031 | 23 | 329 | 11.3 | 25.7 | 0.00 | 0.00 | 0.00 | 46 | 1010.0 |
| 20260504200930 | 23 | 292 | 16.1 | 25.7 | 0.00 | 0.00 | 0.00 | 45 | 1010.0 |
| 20260504200849 | 23 | 308 | 16.1 | 25.7 | 0.00 | 0.00 | 0.00 | 46 | 1010.0 |
| 20260504200725 | 23 | 329 | 14.5 | 29.0 | 0.00 | 0.00 | 0.00 | 45 | 1010.0 |
| 20260504200628 | 23 | 329 | 16.1 | 29.0 | 0.00 | 0.00 | 0.00 | 46 | 1010.0 |
| 20260504200526 | 23 | 322 | 19.3 | 29.0 | 0.00 | 0.00 | 0.00 | 46 | 1010.0 |
| 20260504200424 | 23 | 315 | 16.1 | 29.0 | 0.00 | 0.00 | 0.00 | 47 | 1010.0 |
| 20260504200326 | 23 | 315 | 12.9 | 29.0 | 0.00 | 0.00 | 0.00 | 47 | 1010.0 |
| 20260504200225 | 23 | 304 | 16.1 | 29.0 | 0.00 | 0.00 | 0.00 | 46 | 1010.0 |
| 20260504200156 | 23 | 312 | 12.9 | 29.0 | 0.00 | 0.00 | 0.00 | 46 | 1010.0 |
| 20260504200032 | 23 | 302 | 8.0 | 29.0 | 0.00 | 0.00 | 0.00 | 46 | 1010.0 |
| 20260504195930 | 23 | 315 | 12.9 | 29.0 | 0.00 | 0.00 | 0.00 | 47 | 1010.0 |
| 20260504195832 | 23 | 308 | 8.0 | 22.5 | 0.00 | 0.00 | 0.00 | 46 | 1010.2 |
| 20260504195751 | 23 | 256 | 6.4 | 19.3 | 0.00 | 0.00 | 0.00 | 46 | 1010.2 |
| 20260504195709 | 23 | 329 | 12.9 | 25.7 | 0.00 | 0.00 | 0.00 | 46 | 1010.2 |
| 20260504195605 | 23 | 316 | 11.3 | 25.7 | 0.00 | 0.00 | 0.00 | 46 | 1010.2 |
| 20260504195441 | 23 | 272 | 8.0 | 25.7 | 0.00 | 0.00 | 0.00 | 46 | 1010.2 |
| 20260504195340 | 23 | 328 | 6.4 | 25.7 | 0.00 | 0.00 | 0.00 | 46 | 1010.2 |
| 20260504195239 | 23 | 320 | 1.6 | 29.0 | 0.00 | 0.00 | 0.00 | 46 | 1010.2 |
| 20260504195136 | 23 | 291 | 3.2 | 29.0 | 0.00 | 0.00 | 0.00 | 47 | 1010.2 |
| 20260504195039 | 23 | 315 | 9.7 | 29.0 | 0.00 | 0.00 | 0.00 | 46 | 1010.2 |
| 20260504194937 | 23 | 299 | 12.9 | 29.0 | 0.00 | 0.00 | 0.00 | 45 | 1010.2 |
| 20260504194855 | 23 | 320 | 16.1 | 29.0 | 0.00 | 0.00 | 0.00 | 46 | 1010.2 |
| 20260504194753 | 23 | 323 | 14.5 | 29.0 | 0.00 | 0.00 | 0.00 | 46 | 1010.2 |
| 20260504194721 | 23 | 320 | 11.3 | 29.0 | 0.00 | 0.00 | 0.00 | 45 | 1010.2 |
| 20260504194538 | 23 | 287 | 9.7 | 29.0 | 0.00 | 0.00 | 0.00 | 44 | 1010.2 |
| 20260504194436 | 23 | 280 | 14.5 | 29.0 | 0.00 | 0.00 | 0.00 | 45 | 1010.2 |
| 20260504194334 | 23 | 328 | 9.7 | 20.9 | 0.00 | 0.00 | 0.00 | 45 | 1010.4 |
| 20260504194238 | 23 | 239 | 6.4 | 20.9 | 0.00 | 0.00 | 0.00 | 44 | 1010.4 |
| 20260504194156 | 23 | 325 | 12.9 | 27.4 | 0.00 | 0.00 | 0.00 | 44 | 1010.4 |
| 20260504194054 | 23 | 301 | 9.7 | 27.4 | 0.00 | 0.00 | 0.00 | 44 | 1010.4 |
| 20260504193930 | 23 | 328 | 11.3 | 27.4 | 0.00 | 0.00 | 0.00 | 44 | 1010.4 |
| 20260504193829 | 23 | 323 | 16.1 | 27.4 | 0.00 | 0.00 | 0.00 | 44 | 1010.4 |
| 20260504193751 | 23 | 292 | 17.7 | 27.4 | 0.00 | 0.00 | 0.00 | 45 | 1010.4 |
| 20260504193628 | 23 | 289 | 14.5 | 27.4 | 0.00 | 0.00 | 0.00 | 45 | 1010.4 |
| 20260504193527 | 23 | 304 | 1.6 | 27.4 | 0.00 | 0.00 | 0.00 | 44 | 1010.4 |
| 20260504193430 | 23 | 319 | 6.4 | 27.4 | 0.00 | 0.00 | 0.00 | 43 | 1010.4 |
| 20260504193349 | 23 | 320 | 16.1 | 27.4 | 0.00 | 0.00 | 0.00 | 45 | 1010.4 |
| 20260504193227 | 23 | 323 | 8.0 | 25.7 | 0.00 | 0.00 | 0.00 | 45 | 1010.4 |
| 20260504193157 | 23 | 302 | 6.4 | 25.7 | 0.00 | 0.00 | 0.00 | 45 | 1010.4 |
| 20260504193033 | 23 | 320 | 12.9 | 27.4 | 0.00 | 0.00 | 0.00 | 44 | 1010.4 |
| 20260504192931 | 23 | 296 | 9.7 | 27.4 | 0.00 | 0.00 | 0.00 | 44 | 1010.4 |
| 20260504192850 | 23 | 309 | 16.1 | 27.4 | 0.00 | 0.00 | 0.00 | 44 | 1010.7 |
| 20260504192727 | 23 | 325 | 11.3 | 27.4 | 0.00 | 0.00 | 0.00 | 44 | 1010.7 |
| 20260504192629 | 23 | 281 | 12.9 | 27.4 | 0.00 | 0.00 | 0.00 | 44 | 1010.7 |
| 20260504192527 | 23 | 315 | 6.4 | 27.4 | 0.00 | 0.00 | 0.00 | 44 | 1010.7 |
| 20260504192424 | 23 | 304 | 9.7 | 27.4 | 0.00 | 0.00 | 0.00 | 43 | 1010.7 |
| 20260504192344 | 23 | 311 | 16.1 | 27.4 | 0.00 | 0.00 | 0.00 | 44 | 1010.7 |
| 20260504192304 | 23 | 329 | 19.3 | 27.4 | 0.00 | 0.00 | 0.00 | 44 | 1010.7 |
| 20260504192141 | 23 | 333 | 16.1 | 27.4 | 0.00 | 0.00 | 0.00 | 44 | 1010.7 |
| 20260504192059 | 23 | 326 | 14.5 | 27.4 | 0.00 | 0.00 | 0.00 | 43 | 1010.7 |
| 20260504191936 | 23 | 322 | 9.7 | 27.4 | 0.00 | 0.00 | 0.00 | 44 | 1010.7 |
| 20260504191839 | 23 | 328 | 6.4 | 27.4 | 0.00 | 0.00 | 0.00 | 43 | 1010.7 |
| 20260504191739 | 23 | 326 | 9.7 | 29.0 | 0.00 | 0.00 | 0.00 | 43 | 1010.7 |
| 20260504191647 | 23 | 329 | 9.7 | 29.0 | 0.00 | 0.00 | 0.00 | 43 | 1010.7 |
| 20260504191545 | 23 | 329 | 6.4 | 29.0 | 0.00 | 0.00 | 0.00 | 44 | 1010.7 |
| 20260504191442 | 23 | 298 | 9.7 | 29.0 | 0.00 | 0.00 | 0.00 | 44 | 1010.7 |
| 20260504191340 | 23 | 330 | 19.3 | 29.0 | 0.00 | 0.00 | 0.00 | 44 | 1010.8 |
| 20260504191239 | 23 | 299 | 9.7 | 29.0 | 0.00 | 0.00 | 0.00 | 43 | 1010.8 |
| 20260504191136 | 23 | 299 | 4.8 | 29.0 | 0.00 | 0.00 | 0.00 | 44 | 1010.8 |
| 20260504191034 | 23 | 288 | 14.5 | 29.0 | 0.00 | 0.00 | 0.00 | 43 | 1010.8 |
| 20260504190936 | 23 | 305 | 17.7 | 29.0 | 0.00 | 0.00 | 0.00 | 43 | 1010.8 |
| 20260504190835 | 23 | 328 | 17.7 | 27.4 | 0.00 | 0.00 | 0.00 | 44 | 1010.8 |
| 20260504190733 | 23 | 333 | 16.1 | 27.4 | 0.00 | 0.00 | 0.00 | 44 | 1010.8 |
| 20260504190630 | 23 | 256 | 4.8 | 25.7 | 0.00 | 0.00 | 0.00 | 44 | 1010.8 |
| 20260504190529 | 23 | 326 | 14.5 | 25.7 | 0.00 | 0.00 | 0.00 | 44 | 1010.8 |
| 20260504190432 | 23 | 295 | 16.1 | 25.7 | 0.00 | 0.00 | 0.00 | 45 | 1010.8 |
| 20260504190350 | 23 | 316 | 6.4 | 20.9 | 0.00 | 0.00 | 0.00 | 46 | 1010.8 |
| 20260504190303 | 23 | 329 | 12.9 | 20.9 | 0.00 | 0.00 | 0.00 | 44 | 1010.8 |
| 20260504190152 | 23 | 319 | 9.7 | 20.9 | 0.00 | 0.00 | 0.00 | 45 | 1010.8 |
| 20260504190028 | 23 | 316 | 12.9 | 20.9 | 0.00 | 0.00 | 0.00 | 46 | 1010.8 |
| 20260504185927 | 24 | 271 | 1.6 | 17.7 | 0.00 | 0.00 | 0.00 | 47 | 1010.8 |
| 20260504185824 | 24 | 323 | 9.7 | 19.3 | 0.00 | 0.00 | 0.00 | 47 | 1011.1 |
| 20260504185741 | 24 | 315 | 9.7 | 19.3 | 0.00 | 0.00 | 0.00 | 47 | 1011.1 |
| 20260504185640 | 24 | 320 | 3.2 | 19.3 | 0.00 | 0.00 | 0.00 | 44 | 1011.1 |
| 20260504185538 | 24 | 328 | 3.2 | 19.3 | 0.00 | 0.00 | 0.00 | 44 | 1011.1 |
| 20260504185441 | 24 | 288 | 1.6 | 19.3 | 0.00 | 0.00 | 0.00 | 44 | 1011.1 |
| 20260504185340 | 24 | 323 | 4.8 | 19.3 | 0.00 | 0.00 | 0.00 | 45 | 1011.1 |
| 20260504185258 | 24 | 319 | 9.7 | 22.5 | 0.00 | 0.00 | 0.00 | 44 | 1011.1 |
| 20260504185155 | 24 | 299 | 4.8 | 22.5 | 0.00 | 0.00 | 0.00 | 45 | 1011.1 |
| 20260504185033 | 24 | 288 | 12.9 | 22.5 | 0.00 | 0.00 | 0.00 | 45 | 1011.1 |
| 20260504184951 | 24 | 326 | 11.3 | 22.5 | 0.00 | 0.00 | 0.00 | 46 | 1011.1 |
| 20260504184830 | 23 | 304 | 9.7 | 22.5 | 0.00 | 0.00 | 0.00 | 47 | 1011.1 |
| 20260504184748 | 23 | 239 | 6.4 | 22.5 | 0.00 | 0.00 | 0.00 | 45 | 1011.1 |
| 20260504184656 | 23 | 263 | 6.4 | 22.5 | 0.00 | 0.00 | 0.00 | 45 | 1011.1 |
| 20260504184538 | 23 | 272 | 4.8 | 22.5 | 0.00 | 0.00 | 0.00 | 44 | 1011.1 |
| 20260504184437 | 23 | 275 | 9.7 | 22.5 | 0.00 | 0.00 | 0.00 | 44 | 1011.1 |
| 20260504184336 | 23 | 263 | 12.9 | 20.9 | 0.00 | 0.00 | 0.00 | 44 | 1011.3 |
| 20260504184255 | 23 | 311 | 16.1 | 20.9 | 0.00 | 0.00 | 0.00 | 46 | 1011.3 |
| 20260504184132 | 23 | 322 | 12.9 | 27.4 | 0.00 | 0.00 | 0.00 | 47 | 1011.3 |
| 20260504184031 | 23 | 322 | 16.1 | 27.4 | 0.00 | 0.00 | 0.00 | 45 | 1011.3 |
| 20260504183930 | 23 | 305 | 9.7 | 27.4 | 0.00 | 0.00 | 0.00 | 46 | 1011.3 |
| 20260504183832 | 23 | 298 | 6.4 | 27.4 | 0.00 | 0.00 | 0.00 | 45 | 1011.3 |
| 20260504183729 | 23 | 311 | 9.7 | 27.4 | 0.00 | 0.00 | 0.00 | 45 | 1011.3 |
| 20260504183629 | 23 | 316 | 8.0 | 27.4 | 0.00 | 0.00 | 0.00 | 45 | 1011.3 |
| 20260504183547 | 23 | 305 | 6.4 | 27.4 | 0.00 | 0.00 | 0.00 | 45 | 1011.3 |
| 20260504183444 | 23 | 305 | 4.8 | 27.4 | 0.00 | 0.00 | 0.00 | 45 | 1011.3 |
| 20260504183342 | 23 | 295 | 14.5 | 27.4 | 0.00 | 0.00 | 0.00 | 46 | 1011.3 |
| 20260504183301 | 23 | 299 | 12.9 | 27.4 | 0.00 | 0.00 | 0.00 | 45 | 1011.3 |
| 20260504183211 | 23 | 244 | 11.3 | 24.1 | 0.00 | 0.00 | 0.00 | 46 | 1011.3 |
| 20260504183031 | 23 | 322 | 16.1 | 24.1 | 0.00 | 0.00 | 0.00 | 46 | 1011.3 |
| 20260504182950 | 23 | 329 | 9.7 | 20.9 | 0.00 | 0.00 | 0.00 | 45 | 1011.3 |
| 20260504182827 | 23 | 289 | 4.8 | 17.7 | 0.00 | 0.00 | 0.00 | 45 | 1011.4 |
| 20260504182729 | 23 | 312 | 8.0 | 17.7 | 0.00 | 0.00 | 0.00 | 46 | 1011.4 |
| 20260504182628 | 23 | 306 | 9.7 | 17.7 | 0.00 | 0.00 | 0.00 | 47 | 1011.4 |
| 20260504182546 | 23 | 302 | 11.3 | 17.7 | 0.00 | 0.00 | 0.00 | 45 | 1011.4 |
| 20260504182505 | 23 | 272 | 9.7 | 19.3 | 0.00 | 0.00 | 0.00 | 46 | 1011.4 |
| 20260504182402 | 23 | 319 | 11.3 | 22.5 | 0.00 | 0.00 | 0.00 | 45 | 1011.4 |
| 20260504182238 | 23 | 325 | 4.8 | 22.5 | 0.00 | 0.00 | 0.00 | 45 | 1011.4 |
| 20260504182141 | 23 | 308 | 4.8 | 22.5 | 0.00 | 0.00 | 0.00 | 45 | 1011.4 |
| 20260504182039 | 23 | 319 | 3.2 | 22.5 | 0.00 | 0.00 | 0.00 | 45 | 1011.4 |
| 20260504181937 | 23 | 308 | 6.4 | 22.5 | 0.00 | 0.00 | 0.00 | 44 | 1011.4 |
| 20260504181835 | 23 | 308 | 4.8 | 22.5 | 0.00 | 0.00 | 0.00 | 44 | 1011.4 |
| 20260504181753 | 23 | 292 | 3.2 | 22.5 | 0.00 | 0.00 | 0.00 | 44 | 1011.4 |
| 20260504181723 | 23 | 275 | 9.7 | 22.5 | 0.00 | 0.00 | 0.00 | 45 | 1011.4 |
| 20260504181601 | 23 | 270 | 14.5 | 22.5 | 0.00 | 0.00 | 0.00 | 47 | 1011.4 |
| 20260504181439 | 23 | 309 | 17.7 | 22.5 | 0.00 | 0.00 | 0.00 | 47 | 1011.4 |
| 20260504181341 | 23 | 313 | 9.7 | 22.5 | 0.00 | 0.00 | 0.00 | 47 | 1011.5 |
| 20260504181241 | 23 | 271 | 4.8 | 22.5 | 0.00 | 0.00 | 0.00 | 47 | 1011.5 |
| 20260504181158 | 23 | 312 | 1.6 | 22.5 | 0.00 | 0.00 | 0.00 | 46 | 1011.5 |
| 20260504181035 | 23 | 299 | 1.6 | 22.5 | 0.00 | 0.00 | 0.00 | 45 | 1011.5 |
| 20260504180934 | 23 | 285 | 8.0 | 22.5 | 0.00 | 0.00 | 0.00 | 45 | 1011.5 |
| 20260504180832 | 23 | 329 | 11.3 | 22.5 | 0.00 | 0.00 | 0.00 | 45 | 1011.5 |
| 20260504180730 | 23 | 287 | 12.9 | 22.5 | 0.00 | 0.00 | 0.00 | 45 | 1011.5 |
| 20260504180629 | 23 | 320 | 14.5 | 22.5 | 0.00 | 0.00 | 0.00 | 45 | 1011.5 |
| 20260504180531 | 23 | 264 | 11.3 | 22.5 | 0.00 | 0.00 | 0.00 | 45 | 1011.5 |
| 20260504180429 | 23 | 301 | 8.0 | 22.5 | 0.00 | 0.00 | 0.00 | 45 | 1011.5 |
| 20260504180328 | 23 | 329 | 6.4 | 22.5 | 0.00 | 0.00 | 0.00 | 45 | 1011.5 |
| 20260504180227 | 23 | 326 | 12.9 | 22.5 | 0.00 | 0.00 | 0.00 | 45 | 1011.5 |
| 20260504180158 | 23 | 326 | 14.5 | 22.5 | 0.00 | 0.00 | 0.00 | 45 | 1011.5 |
| 20260504180054 | 23 | 291 | 12.9 | 22.5 | 0.00 | 0.00 | 0.00 | 45 | 1011.5 |
| 20260504175932 | 23 | 328 | 8.0 | 22.5 | 0.00 | 0.00 | 0.00 | 45 | 1011.5 |
| 20260504175836 | 23 | 226 | 16.1 | 22.5 | 0.00 | 0.00 | 0.00 | 45 | 1011.7 |
| 20260504175755 | 23 | 328 | 8.0 | 22.5 | 0.00 | 0.00 | 0.00 | 45 | 1011.7 |
| 20260504175631 | 23 | 328 | 8.0 | 22.5 | 0.00 | 0.00 | 0.00 | 45 | 1011.7 |
| 20260504175529 | 23 | 280 | 4.8 | 22.5 | 0.00 | 0.00 | 0.00 | 45 | 1011.7 |
| 20260504175427 | 23 | 304 | 4.8 | 22.5 | 0.00 | 0.00 | 0.00 | 45 | 1011.7 |
| 20260504175326 | 23 | 320 | 9.7 | 22.5 | 0.00 | 0.00 | 0.00 | 45 | 1011.7 |
| 20260504175224 | 23 | 313 | 8.0 | 22.5 | 0.00 | 0.00 | 0.00 | 45 | 1011.7 |
| 20260504175122 | 23 | 298 | 12.9 | 22.5 | 0.00 | 0.00 | 0.00 | 44 | 1011.7 |
| 20260504175029 | 23 | 315 | 12.9 | 25.7 | 0.00 | 0.00 | 0.00 | 44 | 1011.7 |
| 20260504174928 | 23 | 329 | 11.3 | 27.4 | 0.00 | 0.00 | 0.00 | 44 | 1011.7 |
| 20260504174826 | 23 | 304 | 8.0 | 27.4 | 0.00 | 0.00 | 0.00 | 44 | 1011.7 |
| 20260504174736 | 23 | 318 | 3.2 | 27.4 | 0.00 | 0.00 | 0.00 | 45 | 1011.7 |
| 20260504174645 | 23 | 295 | 9.7 | 27.4 | 0.00 | 0.00 | 0.00 | 44 | 1011.7 |
| 20260504174524 | 23 | 304 | 8.0 | 27.4 | 0.00 | 0.00 | 0.00 | 46 | 1011.7 |
| 20260504174443 | 23 | 288 | 9.7 | 27.4 | 0.00 | 0.00 | 0.00 | 46 | 1011.7 |
| 20260504174324 | 23 | 298 | 12.9 | 27.4 | 0.00 | 0.00 | 0.00 | 46 | 1012.0 |
| 20260504174243 | 23 | 328 | 12.9 | 27.4 | 0.00 | 0.00 | 0.00 | 47 | 1012.0 |
| 20260504174142 | 23 | 316 | 16.1 | 27.4 | 0.00 | 0.00 | 0.00 | 46 | 1012.0 |
| 20260504174040 | 23 | 329 | 12.9 | 27.4 | 0.00 | 0.00 | 0.00 | 45 | 1012.0 |
| 20260504173938 | 23 | 312 | 9.7 | 27.4 | 0.00 | 0.00 | 0.00 | 44 | 1012.0 |
| 20260504173837 | 23 | 304 | 9.7 | 22.5 | 0.00 | 0.00 | 0.00 | 47 | 1012.0 |
| 20260504173756 | 23 | 333 | 6.4 | 22.5 | 0.00 | 0.00 | 0.00 | 47 | 1012.0 |
| 20260504173639 | 23 | 315 | 8.0 | 22.5 | 0.00 | 0.00 | 0.00 | 46 | 1012.0 |
| 20260504173541 | 23 | 298 | 8.0 | 22.5 | 0.00 | 0.00 | 0.00 | 46 | 1012.0 |
| 20260504173439 | 23 | 329 | 8.0 | 22.5 | 0.00 | 0.00 | 0.00 | 47 | 1012.0 |
| 20260504173335 | 23 | 325 | 11.3 | 27.4 | 0.00 | 0.00 | 0.00 | 48 | 1012.0 |
| 20260504173254 | 23 | 316 | 9.7 | 27.4 | 0.00 | 0.00 | 0.00 | 47 | 1012.0 |
| 20260504173203 | 23 | 322 | 11.3 | 27.4 | 0.00 | 0.00 | 0.00 | 47 | 1012.0 |
| 20260504173038 | 23 | 292 | 12.9 | 27.4 | 0.00 | 0.00 | 0.00 | 45 | 1012.0 |
| 20260504172958 | 23 | 329 | 4.8 | 27.4 | 0.00 | 0.00 | 0.00 | 47 | 1012.0 |
| 20260504172834 | 23 | 253 | 3.2 | 27.4 | 0.00 | 0.00 | 0.00 | 47 | 1012.2 |
| 20260504172758 | 23 | 329 | 6.4 | 27.4 | 0.00 | 0.00 | 0.00 | 46 | 1012.2 |
| 20260504172638 | 23 | 326 | 9.7 | 27.4 | 0.00 | 0.00 | 0.00 | 47 | 1012.2 |
| 20260504172538 | 23 | 285 | 17.7 | 27.4 | 0.00 | 0.00 | 0.00 | 47 | 1012.2 |
| 20260504172457 | 23 | 325 | 17.7 | 27.4 | 0.00 | 0.00 | 0.00 | 47 | 1012.2 |
| 20260504172335 | 23 | 319 | 8.0 | 20.9 | 0.00 | 0.00 | 0.00 | 47 | 1012.2 |
| 20260504172232 | 23 | 301 | 4.8 | 20.9 | 0.00 | 0.00 | 0.00 | 46 | 1012.2 |
| 20260504172131 | 23 | 329 | 3.2 | 22.5 | 0.00 | 0.00 | 0.00 | 45 | 1012.2 |
| 20260504172032 | 23 | 311 | 4.8 | 22.5 | 0.00 | 0.00 | 0.00 | 46 | 1012.2 |
| 20260504171930 | 23 | 319 | 8.0 | 22.5 | 0.00 | 0.00 | 0.00 | 46 | 1012.2 |
| 20260504171829 | 23 | 330 | 6.4 | 22.5 | 0.00 | 0.00 | 0.00 | 45 | 1012.2 |
| 20260504171739 | 23 | 319 | 12.9 | 22.5 | 0.00 | 0.00 | 0.00 | 45 | 1012.2 |
| 20260504171652 | 23 | 312 | 9.7 | 22.5 | 0.00 | 0.00 | 0.00 | 46 | 1012.2 |
| 20260504171529 | 23 | 328 | 8.0 | 22.5 | 0.00 | 0.00 | 0.00 | 46 | 1012.2 |
| 20260504171426 | 23 | 296 | 12.9 | 22.5 | 0.00 | 0.00 | 0.00 | 46 | 1012.2 |
| 20260504171329 | 23 | 328 | 12.9 | 22.5 | 0.00 | 0.00 | 0.00 | 46 | 1012.4 |
| 20260504171247 | 23 | 325 | 8.0 | 19.3 | 0.00 | 0.00 | 0.00 | 46 | 1012.4 |
| 20260504171125 | 23 | 291 | 6.4 | 19.3 | 0.00 | 0.00 | 0.00 | 46 | 1012.4 |
| 20260504171043 | 23 | 291 | 9.7 | 19.3 | 0.00 | 0.00 | 0.00 | 46 | 1012.4 |
| 20260504170941 | 23 | 280 | 8.0 | 22.5 | 0.00 | 0.00 | 0.00 | 47 | 1012.4 |
| 20260504170839 | 23 | 326 | 9.7 | 22.5 | 0.00 | 0.00 | 0.00 | 46 | 1012.4 |
| 20260504170737 | 23 | 318 | 6.4 | 22.5 | 0.00 | 0.00 | 0.00 | 47 | 1012.4 |
| 20260504170636 | 23 | 309 | 9.7 | 22.5 | 0.00 | 0.00 | 0.00 | 46 | 1012.4 |
| 20260504170554 | 23 | 318 | 6.4 | 22.5 | 0.00 | 0.00 | 0.00 | 45 | 1012.4 |
| 20260504170436 | 23 | 304 | 6.4 | 22.5 | 0.00 | 0.00 | 0.00 | 46 | 1012.4 |
| 20260504170333 | 23 | 319 | 9.7 | 22.5 | 0.00 | 0.00 | 0.00 | 47 | 1012.4 |
| 20260504170242 | 23 | 328 | 8.0 | 22.5 | 0.00 | 0.00 | 0.00 | 47 | 1012.4 |
| 20260504170153 | 23 | 323 | 11.3 | 22.5 | 0.00 | 0.00 | 0.00 | 46 | 1012.4 |
| 20260504160332 | 21 | 257 | 11.3 | 25.7 | 0.00 | 0.00 | 0.00 | 50 | 1013.2 |
| 20260504160240 | 21 | 302 | 12.9 | 25.7 | 0.00 | 0.00 | 0.00 | 50 | 1013.2 |
| 20260504160151 | 21 | 304 | 9.7 | 25.7 | 0.00 | 0.00 | 0.00 | 50 | 1013.2 |
| 20260504151141 | 18 | 313 | 16.1 | 32.2 | 0.00 | 0.00 | 0.00 | 55 | 1013.7 |
| 20260504151041 | 18 | 281 | 12.9 | 32.2 | 0.00 | 0.00 | 0.00 | 54 | 1013.7 |
| 20260504150959 | 18 | 295 | 9.7 | 32.2 | 0.00 | 0.00 | 0.00 | 55 | 1013.7 |
| 20260504150836 | 18 | 288 | 11.3 | 32.2 | 0.00 | 0.00 | 0.00 | 55 | 1013.7 |
| 20260504150737 | 18 | 271 | 14.5 | 32.2 | 0.00 | 0.00 | 0.00 | 54 | 1013.7 |
| 20260504150634 | 18 | 315 | 19.3 | 32.2 | 0.00 | 0.00 | 0.00 | 54 | 1013.7 |
| 20260504150532 | 18 | 298 | 14.5 | 32.2 | 0.00 | 0.00 | 0.00 | 55 | 1013.7 |
| 20260504150430 | 18 | 305 | 12.9 | 32.2 | 0.00 | 0.00 | 0.00 | 55 | 1013.7 |
| 20260504150327 | 18 | 285 | 16.1 | 32.2 | 0.00 | 0.00 | 0.00 | 55 | 1013.7 |
| 20260504150256 | 17 | 313 | 17.7 | 32.2 | 0.00 | 0.00 | 0.00 | 54 | 1013.7 |
| 20260504150146 | 17 | 294 | 20.9 | 32.2 | 0.00 | 0.00 | 0.00 | 55 | 1013.7 |
| 20260504141303 | 16 | 298 | 17.7 | 30.6 | 0.00 | 0.00 | 0.00 | 56 | 1013.4 |
| 20260504141141 | 16 | 254 | 14.5 | 29.0 | 0.00 | 0.00 | 0.00 | 56 | 1013.4 |
| 20260504141039 | 16 | 277 | 17.7 | 29.0 | 0.00 | 0.00 | 0.00 | 56 | 1013.4 |
| 20260504140941 | 16 | 304 | 17.7 | 27.4 | 0.00 | 0.00 | 0.00 | 56 | 1013.4 |
| 20260504140838 | 16 | 302 | 16.1 | 27.4 | 0.00 | 0.00 | 0.00 | 56 | 1013.4 |
| 20260504140736 | 16 | 274 | 14.5 | 27.4 | 0.00 | 0.00 | 0.00 | 56 | 1013.4 |
| 20260504140634 | 16 | 302 | 14.5 | 29.0 | 0.00 | 0.00 | 0.00 | 56 | 1013.4 |
| 20260504140533 | 16 | 323 | 11.3 | 33.8 | 0.00 | 0.00 | 0.00 | 56 | 1013.4 |
| 20260504140432 | 16 | 305 | 12.9 | 33.8 | 0.00 | 0.00 | 0.00 | 56 | 1013.4 |
| 20260504140332 | 16 | 289 | 14.5 | 33.8 | 0.00 | 0.00 | 0.00 | 56 | 1013.4 |
| 20260504140234 | 16 | 281 | 12.9 | 33.8 | 0.00 | 0.00 | 0.00 | 56 | 1013.4 |
| 20260504140202 | 16 | 282 | 12.9 | 33.8 | 0.00 | 0.00 | 0.00 | 56 | 1013.4 |
| 20260504130759 | 15 | 322 | 19.3 | 38.6 | 0.00 | 0.00 | 0.00 | 54 | 1013.1 |
| 20260504130637 | 15 | 294 | 20.9 | 38.6 | 0.00 | 0.00 | 0.00 | 54 | 1013.1 |
| 20260504130555 | 15 | 319 | 19.3 | 38.6 | 0.00 | 0.00 | 0.00 | 54 | 1013.1 |
| 20260504130433 | 15 | 267 | 16.1 | 38.6 | 0.00 | 0.00 | 0.00 | 54 | 1013.1 |
| 20260504130330 | 15 | 232 | 9.7 | 38.6 | 0.00 | 0.00 | 0.00 | 55 | 1013.1 |
| 20260504130259 | 15 | 270 | 24.1 | 40.2 | 0.00 | 0.00 | 0.00 | 55 | 1013.1 |
| 20260504130152 | 15 | 268 | 19.3 | 40.2 | 0.00 | 0.00 | 0.00 | 54 | 1013.1 |
| 20260504120241 | 13 | 309 | 22.5 | 38.6 | 0.00 | 0.00 | 0.00 | 56 | 1012.6 |
| 20260504120150 | 13 | 292 | 24.1 | 38.6 | 0.00 | 0.00 | 0.00 | 56 | 1012.6 |
| 20260504110639 | 13 | 301 | 22.5 | 40.2 | 0.00 | 0.00 | 0.00 | 54 | 1013.1 |
| 20260504110541 | 13 | 312 | 22.5 | 40.2 | 0.00 | 0.00 | 0.00 | 54 | 1013.1 |
| 20260504110439 | 13 | 301 | 20.9 | 40.2 | 0.00 | 0.00 | 0.00 | 54 | 1013.1 |
| 20260504110337 | 13 | 315 | 22.5 | 40.2 | 0.00 | 0.00 | 0.00 | 55 | 1013.1 |
| 20260504110239 | 13 | 330 | 17.7 | 40.2 | 0.00 | 0.00 | 0.00 | 55 | 1013.1 |
| 20260504110209 | 13 | 267 | 20.9 | 40.2 | 0.00 | 0.00 | 0.00 | 55 | 1013.1 |
| 20260504100530 | 13 | 274 | 20.9 | 41.8 | 0.00 | 0.00 | 0.00 | 55 | 1011.9 |
| 20260504100329 | 13 | 299 | 30.6 | 41.8 | 0.00 | 0.00 | 0.00 | 55 | 1011.9 |
| 20260504100239 | 13 | 272 | 17.7 | 38.6 | 0.00 | 0.00 | 0.00 | 55 | 1011.9 |
| 20260504100149 | 13 | 288 | 17.7 | 38.6 | 0.00 | 0.00 | 0.00 | 54 | 1011.9 |
| 20260504081931 | 13 | 281 | 12.9 | 40.2 | 0.00 | 0.00 | 0.00 | 52 | 1012.0 |
| 20260504081831 | 13 | 274 | 24.1 | 40.2 | 0.00 | 0.00 | 0.00 | 52 | 1012.0 |
| 20260504081739 | 13 | 261 | 14.5 | 40.2 | 0.00 | 0.00 | 0.00 | 52 | 1012.0 |
| 20260504081647 | 13 | 294 | 19.3 | 40.2 | 0.00 | 0.00 | 0.00 | 52 | 1012.0 |
| 20260504081525 | 13 | 308 | 19.3 | 40.2 | 0.00 | 0.00 | 0.00 | 52 | 1012.0 |
| 20260504081444 | 13 | 308 | 17.7 | 40.2 | 0.00 | 0.00 | 0.00 | 52 | 1012.0 |
| 20260504081406 | 13 | 267 | 22.5 | 40.2 | 0.00 | 0.00 | 0.00 | 52 | 1012.1 |
| 20260504081304 | 13 | 313 | 22.5 | 40.2 | 0.00 | 0.00 | 0.00 | 52 | 1012.1 |
| 20260504081142 | 13 | 268 | 19.3 | 38.6 | 0.00 | 0.00 | 0.00 | 52 | 1012.1 |
| 20260504081040 | 13 | 260 | 12.9 | 38.6 | 0.00 | 0.00 | 0.00 | 52 | 1012.1 |
| 20260504080938 | 13 | 332 | 12.9 | 38.6 | 0.00 | 0.00 | 0.00 | 52 | 1012.1 |
| 20260504080856 | 13 | 274 | 14.5 | 38.6 | 0.00 | 0.00 | 0.00 | 52 | 1012.1 |
| 20260504080732 | 13 | 294 | 14.5 | 38.6 | 0.00 | 0.00 | 0.00 | 52 | 1012.1 |
| 20260504080630 | 13 | 312 | 22.5 | 38.6 | 0.00 | 0.00 | 0.00 | 52 | 1012.1 |
| 20260504080531 | 13 | 288 | 17.7 | 38.6 | 0.00 | 0.00 | 0.00 | 51 | 1012.1 |
| 20260504080431 | 13 | 251 | 24.1 | 38.6 | 0.00 | 0.00 | 0.00 | 51 | 1012.1 |
| 20260504080328 | 13 | 315 | 16.1 | 38.6 | 0.00 | 0.00 | 0.00 | 52 | 1012.1 |
| 20260504080227 | 13 | 304 | 19.3 | 38.6 | 0.00 | 0.00 | 0.00 | 51 | 1012.1 |
| 20260504070355 | 13 | 287 | 17.7 | 30.6 | 0.00 | 0.00 | 0.00 | 52 | 1013.2 |
| 20260504070232 | 13 | 289 | 16.1 | 30.6 | 0.00 | 0.00 | 0.00 | 51 | 1013.2 |
| 20260504070203 | 13 | 268 | 16.1 | 30.6 | 0.00 | 0.00 | 0.00 | 52 | 1013.2 |
| 20260504060226 | 13 | 294 | 11.3 | 27.4 | 0.00 | 0.00 | 0.00 | 52 | 1013.0 |
| 20260504050738 | 13 | 325 | 9.7 | 25.7 | 0.00 | 0.00 | 0.00 | 51 | 1013.5 |
| 20260504050636 | 13 | 275 | 12.9 | 25.7 | 0.00 | 0.00 | 0.00 | 51 | 1013.5 |
| 20260504050553 | 13 | 288 | 9.7 | 25.7 | 0.00 | 0.00 | 0.00 | 52 | 1013.5 |
| 20260504050434 | 13 | 306 | 9.7 | 25.7 | 0.00 | 0.00 | 0.00 | 51 | 1013.5 |
| 20260504050335 | 13 | 247 | 11.3 | 25.7 | 0.00 | 0.00 | 0.00 | 52 | 1013.5 |
| 20260504050235 | 13 | 312 | 14.5 | 25.7 | 0.00 | 0.00 | 0.00 | 52 | 1013.5 |
| 20260504050205 | 13 | 199 | 14.5 | 25.7 | 0.00 | 0.00 | 0.00 | 52 | 1013.5 |
| 20260504045938 | 13 | 285 | 11.3 | 25.7 | 0.00 | 0.00 | 0.00 | 51 | 1013.5 |
| 20260504045836 | 13 | 295 | 9.7 | 25.7 | 0.00 | 0.00 | 0.00 | 51 | 1013.5 |
| 20260504045743 | 13 | 294 | 14.5 | 27.4 | 0.00 | 0.00 | 0.00 | 51 | 1013.5 |
| 20260504045641 | 13 | 296 | 16.1 | 27.4 | 0.00 | 0.00 | 0.00 | 50 | 1013.5 |
| 20260504045540 | 13 | 332 | 12.9 | 27.4 | 0.00 | 0.00 | 0.00 | 51 | 1013.5 |
| 20260504045436 | 13 | 319 | 14.5 | 27.4 | 0.00 | 0.00 | 0.00 | 51 | 1013.5 |
| 20260504045333 | 13 | 301 | 12.9 | 27.4 | 0.00 | 0.00 | 0.00 | 51 | 1013.5 |
| 20260504045231 | 13 | 271 | 11.3 | 27.4 | 0.00 | 0.00 | 0.00 | 51 | 1013.5 |
| 20260504045150 | 13 | 274 | 12.9 | 27.4 | 0.00 | 0.00 | 0.00 | 50 | 1013.5 |
| 20260504045051 | 13 | 287 | 16.1 | 27.4 | 0.00 | 0.00 | 0.00 | 51 | 1013.5 |
| 20260504044949 | 13 | 298 | 14.5 | 27.4 | 0.00 | 0.00 | 0.00 | 51 | 1013.5 |
| 20260504044830 | 13 | 305 | 12.9 | 22.5 | 0.00 | 0.00 | 0.00 | 52 | 1013.5 |
| 20260504044730 | 13 | 304 | 11.3 | 25.7 | 0.00 | 0.00 | 0.00 | 52 | 1013.5 |
| 20260504044701 | 13 | 229 | 11.3 | 25.7 | 0.00 | 0.00 | 0.00 | 52 | 1013.5 |
| 20260504044539 | 13 | 277 | 11.3 | 25.7 | 0.00 | 0.00 | 0.00 | 52 | 1013.5 |
| 20260504044437 | 13 | 329 | 11.3 | 25.7 | 0.00 | 0.00 | 0.00 | 52 | 1013.5 |
| 20260504044338 | 13 | 291 | 9.7 | 25.7 | 0.00 | 0.00 | 0.00 | 51 | 1013.5 |
| 20260504044237 | 13 | 277 | 8.0 | 25.7 | 0.00 | 0.00 | 0.00 | 51 | 1013.5 |
| 20260504044138 | 13 | 312 | 11.3 | 25.7 | 0.00 | 0.00 | 0.00 | 51 | 1013.5 |
| 20260504044057 | 13 | 271 | 12.9 | 25.7 | 0.00 | 0.00 | 0.00 | 51 | 1013.5 |
| 20260504043934 | 13 | 256 | 14.5 | 25.7 | 0.00 | 0.00 | 0.00 | 52 | 1013.5 |
| 20260504043856 | 13 | 291 | 11.3 | 25.7 | 0.00 | 0.00 | 0.00 | 51 | 1013.5 |
| 20260504043753 | 13 | 298 | 11.3 | 22.5 | 0.00 | 0.00 | 0.00 | 51 | 1013.5 |
| 20260504043630 | 13 | 236 | 11.3 | 22.5 | 0.00 | 0.00 | 0.00 | 51 | 1013.5 |
| 20260504043527 | 13 | 295 | 12.9 | 25.7 | 0.00 | 0.00 | 0.00 | 51 | 1013.5 |
| 20260504043426 | 13 | 281 | 11.3 | 25.7 | 0.00 | 0.00 | 0.00 | 51 | 1013.5 |
| 20260504043330 | 13 | 261 | 11.3 | 25.7 | 0.00 | 0.00 | 0.00 | 52 | 1013.5 |
| 20260504043241 | 13 | 261 | 11.3 | 25.7 | 0.00 | 0.00 | 0.00 | 51 | 1013.5 |
| 20260504043151 | 13 | 284 | 11.3 | 25.7 | 0.00 | 0.00 | 0.00 | 51 | 1013.5 |
| 20260504043027 | 13 | 281 | 9.7 | 25.7 | 0.00 | 0.00 | 0.00 | 51 | 1013.5 |
| 20260504042925 | 13 | 305 | 12.9 | 25.7 | 0.00 | 0.00 | 0.00 | 52 | 1013.5 |
| 20260504042843 | 13 | 248 | 12.9 | 25.7 | 0.00 | 0.00 | 0.00 | 51 | 1013.4 |
| 20260504042741 | 13 | 274 | 12.9 | 25.7 | 0.00 | 0.00 | 0.00 | 51 | 1013.4 |
| 20260504042639 | 13 | 294 | 12.9 | 22.5 | 0.00 | 0.00 | 0.00 | 51 | 1013.4 |
| 20260504042542 | 13 | 315 | 11.3 | 22.5 | 0.00 | 0.00 | 0.00 | 52 | 1013.4 |
| 20260504042441 | 13 | 281 | 12.9 | 22.5 | 0.00 | 0.00 | 0.00 | 52 | 1013.4 |
| 20260504042338 | 13 | 289 | 12.9 | 22.5 | 0.00 | 0.00 | 0.00 | 52 | 1013.4 |
| 20260504042237 | 13 | 287 | 11.3 | 29.0 | 0.00 | 0.00 | 0.00 | 52 | 1013.4 |
| 20260504042157 | 13 | 306 | 9.7 | 29.0 | 0.00 | 0.00 | 0.00 | 52 | 1013.4 |
| 20260504042033 | 13 | 304 | 9.7 | 29.0 | 0.00 | 0.00 | 0.00 | 52 | 1013.4 |
| 20260504041932 | 13 | 250 | 11.3 | 29.0 | 0.00 | 0.00 | 0.00 | 52 | 1013.4 |
| 20260504041835 | 13 | 294 | 9.7 | 29.0 | 0.00 | 0.00 | 0.00 | 52 | 1013.4 |
| 20260504041734 | 13 | 280 | 12.9 | 29.0 | 0.00 | 0.00 | 0.00 | 52 | 1013.4 |
| 20260504041703 | 13 | 253 | 9.7 | 29.0 | 0.00 | 0.00 | 0.00 | 51 | 1013.4 |
| 20260504041542 | 13 | 285 | 14.5 | 29.0 | 0.00 | 0.00 | 0.00 | 52 | 1013.4 |
| 20260504041442 | 13 | 296 | 17.7 | 29.0 | 0.00 | 0.00 | 0.00 | 52 | 1013.4 |
| 20260504041340 | 13 | 285 | 12.9 | 29.0 | 0.00 | 0.00 | 0.00 | 53 | 1013.6 |
| 20260504041240 | 13 | 309 | 9.7 | 29.0 | 0.00 | 0.00 | 0.00 | 53 | 1013.6 |
| 20260504041139 | 13 | 301 | 14.5 | 29.0 | 0.00 | 0.00 | 0.00 | 53 | 1013.6 |
| 20260504041041 | 13 | 258 | 12.9 | 29.0 | 0.00 | 0.00 | 0.00 | 53 | 1013.6 |
| 20260504040938 | 13 | 263 | 11.3 | 27.4 | 0.00 | 0.00 | 0.00 | 53 | 1013.6 |
| 20260504040837 | 13 | 291 | 14.5 | 27.4 | 0.00 | 0.00 | 0.00 | 53 | 1013.6 |
| 20260504040736 | 13 | 302 | 12.9 | 27.4 | 0.00 | 0.00 | 0.00 | 53 | 1013.6 |
| 20260504040634 | 13 | 261 | 14.5 | 27.4 | 0.00 | 0.00 | 0.00 | 53 | 1013.6 |
| 20260504040531 | 13 | 260 | 11.3 | 27.4 | 0.00 | 0.00 | 0.00 | 53 | 1013.6 |
| 20260504040449 | 13 | 271 | 17.7 | 27.4 | 0.00 | 0.00 | 0.00 | 53 | 1013.6 |
| 20260504040331 | 13 | 282 | 16.1 | 29.0 | 0.00 | 0.00 | 0.00 | 53 | 1013.6 |
| 20260504040241 | 13 | 257 | 14.5 | 29.0 | 0.00 | 0.00 | 0.00 | 53 | 1013.6 |
| 20260504040151 | 13 | 278 | 12.9 | 29.0 | 0.00 | 0.00 | 0.00 | 53 | 1013.6 |
| 20260504040029 | 13 | 254 | 12.9 | 29.0 | 0.00 | 0.00 | 0.00 | 53 | 1013.6 |
| 20260504035947 | 13 | 278 | 17.7 | 29.0 | 0.00 | 0.00 | 0.00 | 53 | 1013.6 |
| 20260504035844 | 13 | 315 | 16.1 | 29.0 | 0.00 | 0.00 | 0.00 | 53 | 1013.8 |
| 20260504035803 | 13 | 294 | 16.1 | 29.0 | 0.00 | 0.00 | 0.00 | 54 | 1013.8 |
| 20260504035639 | 13 | 335 | 16.1 | 29.0 | 0.00 | 0.00 | 0.00 | 54 | 1013.8 |
| 20260504035557 | 13 | 256 | 17.7 | 29.0 | 0.00 | 0.00 | 0.00 | 53 | 1013.8 |
| 20260504035454 | 13 | 281 | 17.7 | 29.0 | 0.00 | 0.00 | 0.00 | 54 | 1013.8 |
| 20260504035336 | 13 | 285 | 17.7 | 29.0 | 0.00 | 0.00 | 0.00 | 54 | 1013.8 |
| 20260504035235 | 13 | 282 | 12.9 | 29.0 | 0.00 | 0.00 | 0.00 | 54 | 1013.8 |
| 20260504035132 | 13 | 285 | 17.7 | 27.4 | 0.00 | 0.00 | 0.00 | 54 | 1013.8 |
| 20260504035052 | 13 | 285 | 16.1 | 27.4 | 0.00 | 0.00 | 0.00 | 54 | 1013.8 |
| 20260504034929 | 13 | 298 | 16.1 | 32.2 | 0.00 | 0.00 | 0.00 | 54 | 1013.8 |
| 20260504034826 | 13 | 311 | 17.7 | 32.2 | 0.00 | 0.00 | 0.00 | 54 | 1013.8 |
| 20260504034725 | 13 | 292 | 17.7 | 32.2 | 0.00 | 0.00 | 0.00 | 54 | 1013.8 |
| 20260504034659 | 13 | 306 | 17.7 | 32.2 | 0.00 | 0.00 | 0.00 | 54 | 1013.8 |
| 20260504034536 | 13 | 302 | 16.1 | 32.2 | 0.00 | 0.00 | 0.00 | 54 | 1013.8 |
| 20260504034435 | 13 | 254 | 16.1 | 32.2 | 0.00 | 0.00 | 0.00 | 54 | 1013.8 |
| 20260504034333 | 13 | 287 | 12.9 | 32.2 | 0.00 | 0.00 | 0.00 | 54 | 1013.9 |
| 20260504034232 | 13 | 251 | 14.5 | 32.2 | 0.00 | 0.00 | 0.00 | 54 | 1013.9 |
| 20260504034130 | 13 | 311 | 17.7 | 32.2 | 0.00 | 0.00 | 0.00 | 55 | 1013.9 |
| 20260504034029 | 13 | 295 | 12.9 | 27.4 | 0.00 | 0.00 | 0.00 | 54 | 1013.9 |
| 20260504033931 | 13 | 287 | 14.5 | 29.0 | 0.00 | 0.00 | 0.00 | 54 | 1013.9 |
| 20260504033854 | 13 | 288 | 17.7 | 29.0 | 0.00 | 0.00 | 0.00 | 54 | 1013.9 |
| 20260504033751 | 13 | 278 | 16.1 | 29.0 | 0.00 | 0.00 | 0.00 | 55 | 1013.9 |
| 20260504033629 | 13 | 280 | 12.9 | 29.0 | 0.00 | 0.00 | 0.00 | 55 | 1013.9 |
| 20260504033527 | 13 | 284 | 17.7 | 29.0 | 0.00 | 0.00 | 0.00 | 55 | 1013.9 |
| 20260504033427 | 13 | 251 | 9.7 | 29.0 | 0.00 | 0.00 | 0.00 | 55 | 1013.9 |
| 20260504033326 | 13 | 288 | 9.7 | 29.0 | 0.00 | 0.00 | 0.00 | 55 | 1013.9 |
| 20260504033239 | 13 | 272 | 9.7 | 29.0 | 0.00 | 0.00 | 0.00 | 55 | 1013.9 |
| 20260504033149 | 13 | 294 | 19.3 | 29.0 | 0.00 | 0.00 | 0.00 | 55 | 1013.9 |
| 20260504033025 | 13 | 304 | 14.5 | 22.5 | 0.00 | 0.00 | 0.00 | 54 | 1013.9 |
| 20260504032925 | 13 | 292 | 16.1 | 22.5 | 0.00 | 0.00 | 0.00 | 54 | 1013.9 |
| 20260504032843 | 13 | 292 | 14.5 | 25.7 | 0.00 | 0.00 | 0.00 | 54 | 1014.4 |
| 20260504032741 | 13 | 289 | 16.1 | 25.7 | 0.00 | 0.00 | 0.00 | 55 | 1014.4 |
| 20260504032640 | 13 | 265 | 14.5 | 25.7 | 0.00 | 0.00 | 0.00 | 55 | 1014.4 |
| 20260504032538 | 13 | 277 | 11.3 | 25.7 | 0.00 | 0.00 | 0.00 | 54 | 1014.4 |
| 20260504032501 | 13 | 254 | 12.9 | 25.7 | 0.00 | 0.00 | 0.00 | 54 | 1014.4 |
| 20260504032337 | 13 | 322 | 12.9 | 25.7 | 0.00 | 0.00 | 0.00 | 54 | 1014.4 |
| 20260504032235 | 12 | 272 | 12.9 | 25.7 | 0.00 | 0.00 | 0.00 | 55 | 1014.4 |
| 20260504032133 | 12 | 281 | 12.9 | 25.7 | 0.00 | 0.00 | 0.00 | 54 | 1014.4 |
| 20260504032054 | 12 | 281 | 14.5 | 25.7 | 0.00 | 0.00 | 0.00 | 54 | 1014.4 |
| 20260504031933 | 12 | 302 | 11.3 | 25.7 | 0.00 | 0.00 | 0.00 | 54 | 1014.4 |
| 20260504031831 | 12 | 328 | 16.1 | 25.7 | 0.00 | 0.00 | 0.00 | 54 | 1014.4 |
| 20260504031743 | 12 | 288 | 8.0 | 25.7 | 0.00 | 0.00 | 0.00 | 54 | 1014.4 |
| 20260504031652 | 12 | 320 | 12.9 | 25.7 | 0.00 | 0.00 | 0.00 | 54 | 1014.4 |
| 20260504031530 | 12 | 298 | 12.9 | 25.7 | 0.00 | 0.00 | 0.00 | 54 | 1014.4 |
| 20260504031428 | 12 | 301 | 12.9 | 22.5 | 0.00 | 0.00 | 0.00 | 55 | 1014.4 |
| 20260504031326 | 12 | 261 | 9.7 | 22.5 | 0.00 | 0.00 | 0.00 | 54 | 1014.7 |
| 20260504031229 | 12 | 315 | 8.0 | 22.5 | 0.00 | 0.00 | 0.00 | 54 | 1014.7 |
| 20260504031128 | 12 | 280 | 9.7 | 22.5 | 0.00 | 0.00 | 0.00 | 55 | 1014.7 |
| 20260504031030 | 12 | 296 | 9.7 | 22.5 | 0.00 | 0.00 | 0.00 | 55 | 1014.7 |
| 20260504030929 | 12 | 299 | 16.1 | 22.5 | 0.00 | 0.00 | 0.00 | 55 | 1014.7 |
| 20260504030849 | 12 | 318 | 16.1 | 22.5 | 0.00 | 0.00 | 0.00 | 54 | 1014.7 |
| 20260504030727 | 12 | 306 | 9.7 | 22.5 | 0.00 | 0.00 | 0.00 | 54 | 1014.7 |
| 20260504030625 | 12 | 260 | 16.1 | 22.5 | 0.00 | 0.00 | 0.00 | 55 | 1014.7 |
| 20260504030523 | 12 | 316 | 9.7 | 22.5 | 0.00 | 0.00 | 0.00 | 55 | 1014.7 |
| 20260504030443 | 12 | 315 | 12.9 | 22.5 | 0.00 | 0.00 | 0.00 | 55 | 1014.7 |
| 20260504030325 | 12 | 257 | 12.9 | 22.5 | 0.00 | 0.00 | 0.00 | 55 | 1014.7 |
| 20260504030236 | 12 | 309 | 9.7 | 22.5 | 0.00 | 0.00 | 0.00 | 55 | 1014.7 |
| 20260504030147 | 12 | 313 | 16.1 | 22.5 | 0.00 | 0.00 | 0.00 | 55 | 1014.7 |
| 20260504030023 | 12 | 287 | 9.7 | 19.3 | 0.00 | 0.00 | 0.00 | 55 | 1014.7 |
| 20260504025925 | 12 | 226 | 11.3 | 19.3 | 0.00 | 0.00 | 0.00 | 54 | 1014.7 |
| 20260504025843 | 12 | 274 | 12.9 | 19.3 | 0.00 | 0.00 | 0.00 | 54 | 1014.7 |
| 20260504025741 | 12 | 318 | 12.9 | 19.3 | 0.00 | 0.00 | 0.00 | 55 | 1014.7 |
| 20260504025639 | 12 | 284 | 12.9 | 19.3 | 0.00 | 0.00 | 0.00 | 55 | 1014.7 |
| 20260504025601 | 12 | 268 | 9.7 | 19.3 | 0.00 | 0.00 | 0.00 | 55 | 1014.7 |
| 20260504025439 | 12 | 247 | 9.7 | 19.3 | 0.00 | 0.00 | 0.00 | 55 | 1014.7 |
| 20260504025337 | 12 | 315 | 9.7 | 14.5 | 0.00 | 0.00 | 0.00 | 56 | 1014.7 |
| 20260504025235 | 12 | 294 | 8.0 | 14.5 | 0.00 | 0.00 | 0.00 | 56 | 1014.7 |
| 20260504025134 | 12 | 305 | 9.7 | 14.5 | 0.00 | 0.00 | 0.00 | 56 | 1014.7 |
| 20260504025032 | 12 | 323 | 8.0 | 14.5 | 0.00 | 0.00 | 0.00 | 56 | 1014.7 |
| 20260504024930 | 12 | 260 | 11.3 | 14.5 | 0.00 | 0.00 | 0.00 | 56 | 1014.7 |
| 20260504024833 | 12 | 315 | 11.3 | 14.5 | 0.00 | 0.00 | 0.00 | 56 | 1014.7 |
| 20260504024752 | 12 | 287 | 9.7 | 14.5 | 0.00 | 0.00 | 0.00 | 56 | 1014.7 |
| 20260504024702 | 12 | 301 | 8.0 | 14.5 | 0.00 | 0.00 | 0.00 | 56 | 1014.7 |
| 20260504024540 | 12 | 243 | 9.7 | 14.5 | 0.00 | 0.00 | 0.00 | 56 | 1014.7 |
| 20260504024439 | 12 | 288 | 8.0 | 14.5 | 0.00 | 0.00 | 0.00 | 56 | 1014.7 |
| 20260504024338 | 12 | 315 | 9.7 | 14.5 | 0.00 | 0.00 | 0.00 | 56 | 1014.7 |
| 20260504024236 | 12 | 298 | 9.7 | 14.5 | 0.00 | 0.00 | 0.00 | 56 | 1014.7 |
| 20260504024139 | 12 | 301 | 9.7 | 14.5 | 0.00 | 0.00 | 0.00 | 56 | 1014.7 |
| 20260504024038 | 12 | 329 | 9.7 | 14.5 | 0.00 | 0.00 | 0.00 | 56 | 1014.7 |
| 20260504023938 | 12 | 268 | 6.4 | 12.9 | 0.00 | 0.00 | 0.00 | 56 | 1014.7 |
| 20260504023836 | 12 | 260 | 9.7 | 12.9 | 0.00 | 0.00 | 0.00 | 56 | 1014.7 |
| 20260504023735 | 12 | 280 | 9.7 | 12.9 | 0.00 | 0.00 | 0.00 | 56 | 1014.7 |
| 20260504023652 | 12 | 265 | 8.0 | 12.9 | 0.00 | 0.00 | 0.00 | 55 | 1014.7 |
| 20260504023530 | 12 | 326 | 8.0 | 12.9 | 0.00 | 0.00 | 0.00 | 56 | 1014.7 |
| 20260504023433 | 12 | 304 | 9.7 | 12.9 | 0.00 | 0.00 | 0.00 | 56 | 1014.7 |
| 20260504023331 | 12 | 312 | 9.7 | 12.9 | 0.00 | 0.00 | 0.00 | 56 | 1014.7 |
| 20260504023242 | 12 | 329 | 6.4 | 12.9 | 0.00 | 0.00 | 0.00 | 56 | 1014.7 |
| 20260504023152 | 12 | 332 | 9.7 | 12.9 | 0.00 | 0.00 | 0.00 | 56 | 1014.7 |
| 20260504023027 | 12 | 285 | 8.0 | 12.9 | 0.00 | 0.00 | 0.00 | 56 | 1014.7 |
| 20260504022926 | 12 | 306 | 6.4 | 12.9 | 0.00 | 0.00 | 0.00 | 56 | 1014.7 |
| 20260504022824 | 12 | 319 | 6.4 | 12.9 | 0.00 | 0.00 | 0.00 | 56 | 1014.6 |
| 20260504022730 | 12 | 294 | 8.0 | 12.9 | 0.00 | 0.00 | 0.00 | 56 | 1014.6 |
| 20260504022649 | 12 | 267 | 6.4 | 12.9 | 0.00 | 0.00 | 0.00 | 56 | 1014.6 |
| 20260504022546 | 12 | 330 | 6.4 | 12.9 | 0.00 | 0.00 | 0.00 | 56 | 1014.6 |
| 20260504022443 | 12 | 243 | 6.4 | 12.9 | 0.00 | 0.00 | 0.00 | 56 | 1014.6 |
| 20260504022341 | 12 | 332 | 9.7 | 12.9 | 0.00 | 0.00 | 0.00 | 56 | 1014.6 |
| 20260504022239 | 12 | 323 | 8.0 | 12.9 | 0.00 | 0.00 | 0.00 | 58 | 1014.6 |
| 20260504022137 | 12 | 325 | 8.0 | 12.9 | 0.00 | 0.00 | 0.00 | 59 | 1014.6 |
| 20260504022056 | 12 | 328 | 8.0 | 12.9 | 0.00 | 0.00 | 0.00 | 58 | 1014.6 |
| 20260504021932 | 12 | 288 | 8.0 | 12.9 | 0.00 | 0.00 | 0.00 | 58 | 1014.6 |
| 20260504021835 | 12 | 237 | 6.4 | 12.9 | 0.00 | 0.00 | 0.00 | 59 | 1014.6 |
| 20260504021734 | 12 | 263 | 9.7 | 12.9 | 0.00 | 0.00 | 0.00 | 59 | 1014.6 |
| 20260504021703 | 12 | 302 | 6.4 | 12.9 | 0.00 | 0.00 | 0.00 | 59 | 1014.6 |
| 20260504021542 | 12 | 332 | 4.8 | 11.3 | 0.00 | 0.00 | 0.00 | 59 | 1014.6 |
| 20260504021502 | 12 | 260 | 4.8 | 11.3 | 0.00 | 0.00 | 0.00 | 59 | 1014.6 |
| 20260504021339 | 12 | 251 | 6.4 | 11.3 | 0.00 | 0.00 | 0.00 | 59 | 1014.5 |
| 20260504021257 | 12 | 332 | 8.0 | 12.9 | 0.00 | 0.00 | 0.00 | 59 | 1014.5 |
| 20260504021134 | 12 | 330 | 6.4 | 12.9 | 0.00 | 0.00 | 0.00 | 59 | 1014.5 |
| 20260504021057 | 12 | 326 | 4.8 | 12.9 | 0.00 | 0.00 | 0.00 | 59 | 1014.5 |
| 20260504020954 | 12 | 330 | 8.0 | 12.9 | 0.00 | 0.00 | 0.00 | 59 | 1014.5 |
| 20260504020830 | 12 | 333 | 6.4 | 12.9 | 0.00 | 0.00 | 0.00 | 59 | 1014.5 |
| 20260504020729 | 12 | 261 | 8.0 | 12.9 | 0.00 | 0.00 | 0.00 | 59 | 1014.5 |
| 20260504020629 | 12 | 322 | 6.4 | 12.9 | 0.00 | 0.00 | 0.00 | 60 | 1014.5 |
| 20260504020547 | 12 | 330 | 8.0 | 12.9 | 0.00 | 0.00 | 0.00 | 59 | 1014.5 |
| 20260504020504 | 12 | 263 | 8.0 | 12.9 | 0.00 | 0.00 | 0.00 | 59 | 1014.5 |
| 20260504020342 | 12 | 254 | 8.0 | 11.3 | 0.00 | 0.00 | 0.00 | 59 | 1014.5 |
| 20260504020225 | 12 | 332 | 4.8 | 11.3 | 0.00 | 0.00 | 0.00 | 59 | 1014.5 |
| 20260504020155 | 12 | 258 | 3.2 | 9.7 | 0.00 | 0.00 | 0.00 | 59 | 1014.5 |
| 20260504020032 | 12 | 329 | 3.2 | 9.7 | 0.00 | 0.00 | 0.00 | 58 | 1014.5 |
| 20260504015949 | 12 | 306 | 4.8 | 9.7 | 0.00 | 0.00 | 0.00 | 57 | 1014.5 |
| 20260504015828 | 12 | 330 | 6.4 | 9.7 | 0.00 | 0.00 | 0.00 | 56 | 1014.3 |
| 20260504015725 | 12 | 319 | 4.8 | 9.7 | 0.00 | 0.00 | 0.00 | 56 | 1014.3 |
| 20260504015624 | 12 | 330 | 4.8 | 9.7 | 0.00 | 0.00 | 0.00 | 56 | 1014.3 |
| 20260504015526 | 12 | 329 | 4.8 | 9.7 | 0.00 | 0.00 | 0.00 | 56 | 1014.3 |
| 20260504015445 | 12 | 270 | 4.8 | 9.7 | 0.00 | 0.00 | 0.00 | 55 | 1014.3 |
| 20260504015404 | 12 | 332 | 3.2 | 9.7 | 0.00 | 0.00 | 0.00 | 55 | 1014.3 |
| 20260504015301 | 12 | 315 | 1.6 | 9.7 | 0.00 | 0.00 | 0.00 | 56 | 1014.3 |
| 20260504015138 | 12 | 332 | 3.2 | 11.3 | 0.00 | 0.00 | 0.00 | 57 | 1014.3 |
| 20260504015036 | 12 | 332 | 3.2 | 11.3 | 0.00 | 0.00 | 0.00 | 57 | 1014.3 |
| 20260504014954 | 12 | 330 | 3.2 | 11.3 | 0.00 | 0.00 | 0.00 | 57 | 1014.3 |
| 20260504014832 | 12 | 308 | 6.4 | 11.3 | 0.00 | 0.00 | 0.00 | 57 | 1014.3 |
| 20260504014730 | 12 | 265 | 4.8 | 11.3 | 0.00 | 0.00 | 0.00 | 58 | 1014.3 |
| 20260504014704 | 12 | 333 | 6.4 | 11.3 | 0.00 | 0.00 | 0.00 | 57 | 1014.3 |
| 20260504014542 | 12 | 309 | 6.4 | 11.3 | 0.00 | 0.00 | 0.00 | 59 | 1014.3 |
| 20260504014500 | 12 | 256 | 6.4 | 11.3 | 0.00 | 0.00 | 0.00 | 59 | 1014.3 |
| 20260504014358 | 12 | 329 | 8.0 | 11.3 | 0.00 | 0.00 | 0.00 | 59 | 1014.1 |
| 20260504014236 | 12 | 284 | 4.8 | 11.3 | 0.00 | 0.00 | 0.00 | 59 | 1014.1 |
| 20260504014133 | 12 | 244 | 3.2 | 11.3 | 0.00 | 0.00 | 0.00 | 59 | 1014.1 |
| 20260504014052 | 12 | 299 | 6.4 | 11.3 | 0.00 | 0.00 | 0.00 | 58 | 1014.1 |
| 20260504013929 | 12 | 270 | 6.4 | 11.3 | 0.00 | 0.00 | 0.00 | 58 | 1014.1 |
| 20260504013830 | 12 | 320 | 8.0 | 11.3 | 0.00 | 0.00 | 0.00 | 57 | 1014.1 |
| 20260504013730 | 12 | 294 | 6.4 | 11.3 | 0.00 | 0.00 | 0.00 | 57 | 1014.1 |
| 20260504013628 | 12 | 330 | 4.8 | 11.3 | 0.00 | 0.00 | 0.00 | 57 | 1014.1 |
| 20260504013525 | 12 | 261 | 4.8 | 11.3 | 0.00 | 0.00 | 0.00 | 56 | 1014.1 |
| 20260504013424 | 12 | 296 | 6.4 | 11.3 | 0.00 | 0.00 | 0.00 | 56 | 1014.1 |
| 20260504013343 | 12 | 332 | 6.4 | 11.3 | 0.00 | 0.00 | 0.00 | 56 | 1014.1 |
| 20260504013231 | 12 | 330 | 3.2 | 11.3 | 0.00 | 0.00 | 0.00 | 56 | 1014.1 |
| 20260504013146 | 12 | 332 | 3.2 | 11.3 | 0.00 | 0.00 | 0.00 | 56 | 1014.1 |
| 20260504013025 | 12 | 326 | 8.0 | 11.3 | 0.00 | 0.00 | 0.00 | 56 | 1014.1 |
| 20260504012924 | 12 | 333 | 4.8 | 9.7 | 0.00 | 0.00 | 0.00 | 56 | 1014.1 |
| 20260504012824 | 12 | 326 | 4.8 | 9.7 | 0.00 | 0.00 | 0.00 | 56 | 1013.9 |
| 20260504012726 | 13 | 329 | 1.6 | 9.7 | 0.00 | 0.00 | 0.00 | 57 | 1013.9 |
| 20260504012626 | 13 | 280 | 4.8 | 9.7 | 0.00 | 0.00 | 0.00 | 57 | 1013.9 |
| 20260504012544 | 13 | 316 | 6.4 | 9.7 | 0.00 | 0.00 | 0.00 | 58 | 1013.9 |
| 20260504012426 | 13 | 333 | 6.4 | 9.7 | 0.00 | 0.00 | 0.00 | 58 | 1013.9 |
| 20260504012344 | 13 | 337 | 6.4 | 9.7 | 0.00 | 0.00 | 0.00 | 57 | 1013.9 |
| 20260504012305 | 13 | 333 | 6.4 | 11.3 | 0.00 | 0.00 | 0.00 | 57 | 1013.9 |
| 20260504012142 | 13 | 337 | 6.4 | 11.3 | 0.00 | 0.00 | 0.00 | 57 | 1013.9 |
| 20260504012100 | 13 | 322 | 6.4 | 11.3 | 0.00 | 0.00 | 0.00 | 56 | 1013.9 |
| 20260504011937 | 13 | 315 | 4.8 | 11.3 | 0.00 | 0.00 | 0.00 | 56 | 1013.9 |
| 20260504011856 | 13 | 333 | 6.4 | 11.3 | 0.00 | 0.00 | 0.00 | 56 | 1013.9 |
| 20260504011732 | 13 | 330 | 8.0 | 12.9 | 0.00 | 0.00 | 0.00 | 56 | 1013.9 |
| 20260504011703 | 13 | 311 | 8.0 | 12.9 | 0.00 | 0.00 | 0.00 | 56 | 1013.9 |
| 20260504011604 | 13 | 333 | 6.4 | 12.9 | 0.00 | 0.00 | 0.00 | 56 | 1013.9 |
| 20260504011442 | 13 | 332 | 6.4 | 12.9 | 0.00 | 0.00 | 0.00 | 56 | 1013.9 |
| 20260504011342 | 13 | 301 | 6.4 | 12.9 | 0.00 | 0.00 | 0.00 | 56 | 1013.2 |
| 20260504011241 | 13 | 320 | 4.8 | 12.9 | 0.00 | 0.00 | 0.00 | 55 | 1013.2 |
| 20260504011139 | 13 | 330 | 6.4 | 12.9 | 0.00 | 0.00 | 0.00 | 56 | 1013.2 |
| 20260504011038 | 13 | 329 | 4.8 | 12.9 | 0.00 | 0.00 | 0.00 | 56 | 1013.2 |
| 20260504010936 | 13 | 320 | 6.4 | 12.9 | 0.00 | 0.00 | 0.00 | 56 | 1013.2 |
| 20260504010838 | 13 | 333 | 6.4 | 12.9 | 0.00 | 0.00 | 0.00 | 54 | 1013.2 |
| 20260504010736 | 13 | 329 | 6.4 | 9.7 | 0.00 | 0.00 | 0.00 | 54 | 1013.2 |
| 20260504010634 | 13 | 332 | 4.8 | 9.7 | 0.00 | 0.00 | 0.00 | 54 | 1013.2 |
| 20260504010532 | 13 | 326 | 4.8 | 9.7 | 0.00 | 0.00 | 0.00 | 53 | 1013.2 |
| 20260504010430 | 13 | 333 | 4.8 | 9.7 | 0.00 | 0.00 | 0.00 | 53 | 1013.2 |
| 20260504010330 | 13 | 329 | 3.2 | 8.0 | 0.00 | 0.00 | 0.00 | 53 | 1013.2 |
| 20260504010228 | 13 | 325 | 1.6 | 8.0 | 0.00 | 0.00 | 0.00 | 54 | 1013.2 |
| 20260504010202 | 13 | 332 | 3.2 | 8.0 | 0.00 | 0.00 | 0.00 | 54 | 1013.2 |
| 20260504010039 | 13 | 332 | 3.2 | 8.0 | 0.00 | 0.00 | 0.00 | 53 | 1013.2 |
| 20260504005937 | 13 | 333 | 4.8 | 8.0 | 0.00 | 0.00 | 0.00 | 53 | 1013.2 |
| 20260504005835 | 13 | 326 | 3.2 | 6.4 | 0.00 | 0.00 | 0.00 | 51 | 1014.0 |
| 20260504005733 | 13 | 304 | 4.8 | 6.4 | 0.00 | 0.00 | 0.00 | 50 | 1014.0 |
| 20260504005630 | 13 | 333 | 3.2 | 6.4 | 0.00 | 0.00 | 0.00 | 51 | 1014.0 |
| 20260504005529 | 13 | 330 | 3.2 | 4.8 | 0.00 | 0.00 | 0.00 | 50 | 1014.0 |
| 20260504005431 | 14 | 333 | 3.2 | 4.8 | 0.00 | 0.00 | 0.00 | 50 | 1014.0 |
| 20260504005351 | 14 | 330 | 3.2 | 4.8 | 0.00 | 0.00 | 0.00 | 50 | 1014.0 |
| 20260504005250 | 14 | 333 | 4.8 | 4.8 | 0.00 | 0.00 | 0.00 | 50 | 1014.0 |
| 20260504005127 | 14 | 335 | 1.6 | 4.8 | 0.00 | 0.00 | 0.00 | 50 | 1014.0 |
| 20260504005025 | 14 | 318 | 0.0 | 4.8 | 0.00 | 0.00 | 0.00 | 50 | 1014.0 |
| 20260504004943 | 14 | 332 | 0.0 | 4.8 | 0.00 | 0.00 | 0.00 | 50 | 1014.0 |
| 20260504004843 | 14 | 325 | 1.6 | 4.8 | 0.00 | 0.00 | 0.00 | 51 | 1014.0 |
| 20260504004725 | 14 | 329 | 3.2 | 8.0 | 0.00 | 0.00 | 0.00 | 51 | 1014.0 |
| 20260504004655 | 14 | 325 | 1.6 | 9.7 | 0.00 | 0.00 | 0.00 | 51 | 1014.0 |
| 20260504004532 | 14 | 330 | 1.6 | 9.7 | 0.00 | 0.00 | 0.00 | 50 | 1014.0 |
| 20260504004430 | 14 | 328 | 0.0 | 9.7 | 0.00 | 0.00 | 0.00 | 50 | 1014.0 |
| 20260504004330 | 14 | 325 | 0.0 | 9.7 | 0.00 | 0.00 | 0.00 | 49 | 1013.9 |
| 20260504004228 | 14 | 323 | 1.6 | 9.7 | 0.00 | 0.00 | 0.00 | 49 | 1013.9 |
| 20260504004126 | 14 | 332 | 0.0 | 9.7 | 0.00 | 0.00 | 0.00 | 49 | 1013.9 |
| 20260504004029 | 14 | 309 | 0.0 | 9.7 | 0.00 | 0.00 | 0.00 | 48 | 1013.9 |
| 20260504003927 | 14 | 330 | 1.6 | 9.7 | 0.00 | 0.00 | 0.00 | 48 | 1013.9 |
| 20260504003826 | 15 | 323 | 1.6 | 9.7 | 0.00 | 0.00 | 0.00 | 48 | 1013.9 |
| 20260504003727 | 15 | 318 | 1.6 | 4.8 | 0.00 | 0.00 | 0.00 | 48 | 1013.9 |
| 20260504003625 | 15 | 319 | 1.6 | 4.8 | 0.00 | 0.00 | 0.00 | 47 | 1013.9 |
| 20260504003544 | 15 | 318 | 1.6 | 4.8 | 0.00 | 0.00 | 0.00 | 47 | 1013.9 |
| 20260504003441 | 15 | 323 | 1.6 | 4.8 | 0.00 | 0.00 | 0.00 | 47 | 1013.9 |
| 20260504003345 | 15 | 330 | 1.6 | 4.8 | 0.00 | 0.00 | 0.00 | 47 | 1013.9 |
| 20260504003243 | 15 | 320 | 1.6 | 4.8 | 0.00 | 0.00 | 0.00 | 46 | 1013.9 |
| 20260504003214 | 15 | 313 | 1.6 | 4.8 | 0.00 | 0.00 | 0.00 | 46 | 1013.9 |
| 20260504003028 | 15 | 332 | 1.6 | 4.8 | 0.00 | 0.00 | 0.00 | 47 | 1013.9 |
| 20260504002927 | 15 | 329 | 0.0 | 4.8 | 0.00 | 0.00 | 0.00 | 46 | 1013.9 |
| 20260504002825 | 15 | 312 | 0.0 | 9.7 | 0.00 | 0.00 | 0.00 | 47 | 1013.9 |
| 20260504002743 | 15 | 316 | 1.6 | 9.7 | 0.00 | 0.00 | 0.00 | 46 | 1013.9 |
| 20260504002642 | 15 | 330 | 3.2 | 12.9 | 0.00 | 0.00 | 0.00 | 46 | 1013.9 |
| 20260504002601 | 15 | 332 | 3.2 | 12.9 | 0.00 | 0.00 | 0.00 | 47 | 1013.9 |
| 20260504002437 | 15 | 332 | 1.6 | 12.9 | 0.00 | 0.00 | 0.00 | 47 | 1013.9 |
| 20260504002339 | 15 | 329 | 1.6 | 12.9 | 0.00 | 0.00 | 0.00 | 47 | 1013.9 |
| 20260504002237 | 15 | 330 | 1.6 | 12.9 | 0.00 | 0.00 | 0.00 | 47 | 1013.9 |
| 20260504002136 | 15 | 332 | 3.2 | 12.9 | 0.00 | 0.00 | 0.00 | 46 | 1013.9 |
| 20260504002054 | 15 | 329 | 3.2 | 12.9 | 0.00 | 0.00 | 0.00 | 46 | 1013.9 |
| 20260504001932 | 15 | 328 | 0.0 | 12.9 | 0.00 | 0.00 | 0.00 | 46 | 1013.9 |
| 20260504001829 | 15 | 325 | 4.8 | 12.9 | 0.00 | 0.00 | 0.00 | 46 | 1013.9 |
| 20260504001737 | 15 | 322 | 6.4 | 12.9 | 0.00 | 0.00 | 0.00 | 46 | 1013.9 |
| 20260504001647 | 15 | 318 | 4.8 | 17.7 | 0.00 | 0.00 | 0.00 | 46 | 1013.9 |
| 20260504001548 | 15 | 330 | 4.8 | 17.7 | 0.00 | 0.00 | 0.00 | 46 | 1013.9 |
| 20260504001425 | 15 | 322 | 4.8 | 17.7 | 0.00 | 0.00 | 0.00 | 45 | 1013.9 |
| 20260504001344 | 15 | 333 | 8.0 | 17.7 | 0.00 | 0.00 | 0.00 | 45 | 1014.1 |
| 20260504001303 | 15 | 319 | 6.4 | 17.7 | 0.00 | 0.00 | 0.00 | 45 | 1014.1 |
| 20260504001139 | 15 | 316 | 4.8 | 17.7 | 0.00 | 0.00 | 0.00 | 46 | 1014.1 |
| 20260504001038 | 15 | 328 | 3.2 | 17.7 | 0.00 | 0.00 | 0.00 | 46 | 1014.1 |
| 20260504000936 | 15 | 326 | 4.8 | 17.7 | 0.00 | 0.00 | 0.00 | 46 | 1014.1 |
| 20260504000834 | 15 | 320 | 6.4 | 17.7 | 0.00 | 0.00 | 0.00 | 46 | 1014.1 |
| 20260504000736 | 15 | 312 | 6.4 | 14.5 | 0.00 | 0.00 | 0.00 | 46 | 1014.1 |
| 20260504000635 | 15 | 318 | 6.4 | 11.3 | 0.00 | 0.00 | 0.00 | 45 | 1014.1 |
| 20260504000533 | 15 | 318 | 6.4 | 9.7 | 0.00 | 0.00 | 0.00 | 45 | 1014.1 |
| 20260504000431 | 15 | 312 | 3.2 | 9.7 | 0.00 | 0.00 | 0.00 | 45 | 1014.1 |
| 20260504000329 | 15 | 326 | 4.8 | 9.7 | 0.00 | 0.00 | 0.00 | 44 | 1014.1 |
| 20260504000241 | 15 | 320 | 3.2 | 9.7 | 0.00 | 0.00 | 0.00 | 44 | 1014.1 |
| 20260504000151 | 15 | 325 | 3.2 | 16.1 | 0.00 | 0.00 | 0.00 | 44 | 1014.1 |
| 20260504000031 | 15 | 323 | 1.6 | 16.1 | 0.00 | 0.00 | 0.00 | 44 | 1014.1 |
| 20260503235949 | 15 | 325 | 1.6 | 16.1 | 0.00 | 0.00 | 0.00 | 44 | 1014.1 |
| 20260503235827 | 15 | 332 | 6.4 | 16.1 | 0.00 | 0.00 | 0.00 | 44 | 1014.2 |
| 20260503235726 | 15 | 326 | 4.8 | 16.1 | 0.00 | 0.00 | 0.00 | 44 | 1014.2 |
| 20260503235645 | 15 | 332 | 3.2 | 19.3 | 0.00 | 0.00 | 0.00 | 44 | 1014.2 |
| 20260503235604 | 15 | 315 | 3.2 | 19.3 | 0.00 | 0.00 | 0.00 | 43 | 1014.2 |
| 20260503235441 | 15 | 325 | 4.8 | 19.3 | 0.00 | 0.00 | 0.00 | 42 | 1014.2 |
| 20260503235326 | 15 | 313 | 8.0 | 19.3 | 0.00 | 0.00 | 0.00 | 41 | 1014.2 |
| 20260503235223 | 15 | 332 | 4.8 | 19.3 | 0.00 | 0.00 | 0.00 | 41 | 1014.2 |
| 20260503235142 | 16 | 318 | 4.8 | 19.3 | 0.00 | 0.00 | 0.00 | 41 | 1014.2 |
| 20260503235040 | 16 | 323 | 4.8 | 19.3 | 0.00 | 0.00 | 0.00 | 42 | 1014.2 |
| 20260503234939 | 16 | 322 | 1.6 | 19.3 | 0.00 | 0.00 | 0.00 | 42 | 1014.2 |
| 20260503234836 | 16 | 319 | 8.0 | 19.3 | 0.00 | 0.00 | 0.00 | 42 | 1014.2 |
| 20260503234734 | 16 | 322 | 12.9 | 16.1 | 0.00 | 0.00 | 0.00 | 44 | 1014.2 |
| 20260503234704 | 16 | 322 | 11.3 | 16.1 | 0.00 | 0.00 | 0.00 | 44 | 1014.2 |
| 20260503234602 | 16 | 325 | 4.8 | 19.3 | 0.00 | 0.00 | 0.00 | 45 | 1014.2 |
| 20260503234441 | 16 | 322 | 3.2 | 19.3 | 0.00 | 0.00 | 0.00 | 45 | 1014.2 |
| 20260503234339 | 16 | 289 | 3.2 | 19.3 | 0.00 | 0.00 | 0.00 | 45 | 1014.2 |
| 20260503234238 | 16 | 322 | 1.6 | 19.3 | 0.00 | 0.00 | 0.00 | 45 | 1014.2 |
| 20260503234136 | 16 | 301 | 4.8 | 19.3 | 0.00 | 0.00 | 0.00 | 46 | 1014.2 |
| 20260503234034 | 16 | 320 | 6.4 | 19.3 | 0.00 | 0.00 | 0.00 | 45 | 1014.2 |
| 20260503233932 | 16 | 311 | 4.8 | 19.3 | 0.00 | 0.00 | 0.00 | 46 | 1014.2 |
| 20260503233831 | 16 | 316 | 4.8 | 19.3 | 0.00 | 0.00 | 0.00 | 45 | 1014.2 |
| 20260503233753 | 16 | 319 | 9.7 | 19.3 | 0.00 | 0.00 | 0.00 | 44 | 1014.2 |
| 20260503233631 | 16 | 326 | 9.7 | 19.3 | 0.00 | 0.00 | 0.00 | 45 | 1014.2 |
| 20260503233529 | 16 | 330 | 6.4 | 19.3 | 0.00 | 0.00 | 0.00 | 46 | 1014.2 |
| 20260503233427 | 16 | 333 | 8.0 | 19.3 | 0.00 | 0.00 | 0.00 | 45 | 1014.2 |
| 20260503233326 | 16 | 328 | 3.2 | 14.5 | 0.00 | 0.00 | 0.00 | 46 | 1014.2 |
| 20260503233225 | 16 | 313 | 4.8 | 14.5 | 0.00 | 0.00 | 0.00 | 46 | 1014.2 |
| 20260503233157 | 16 | 323 | 6.4 | 14.5 | 0.00 | 0.00 | 0.00 | 46 | 1014.2 |
| 20260503233038 | 16 | 320 | 11.3 | 16.1 | 0.00 | 0.00 | 0.00 | 46 | 1014.2 |
| 20260503232936 | 16 | 329 | 8.0 | 16.1 | 0.00 | 0.00 | 0.00 | 46 | 1014.2 |
| 20260503232835 | 16 | 328 | 6.4 | 16.1 | 0.00 | 0.00 | 0.00 | 45 | 1014.3 |
| 20260503232732 | 16 | 332 | 8.0 | 16.1 | 0.00 | 0.00 | 0.00 | 45 | 1014.3 |
| 20260503232630 | 16 | 320 | 8.0 | 16.1 | 0.00 | 0.00 | 0.00 | 45 | 1014.3 |
| 20260503232528 | 16 | 326 | 1.6 | 16.1 | 0.00 | 0.00 | 0.00 | 44 | 1014.3 |
| 20260503232427 | 16 | 309 | 1.6 | 16.1 | 0.00 | 0.00 | 0.00 | 44 | 1014.3 |
| 20260503232329 | 16 | 277 | 3.2 | 16.1 | 0.00 | 0.00 | 0.00 | 44 | 1014.3 |
| 20260503232227 | 16 | 312 | 8.0 | 16.1 | 0.00 | 0.00 | 0.00 | 44 | 1014.3 |
| 20260503232126 | 16 | 299 | 4.8 | 14.5 | 0.00 | 0.00 | 0.00 | 43 | 1014.3 |
| 20260503232025 | 16 | 315 | 6.4 | 19.3 | 0.00 | 0.00 | 0.00 | 44 | 1014.3 |
| 20260503231925 | 16 | 320 | 8.0 | 19.3 | 0.00 | 0.00 | 0.00 | 44 | 1014.3 |
| 20260503231842 | 16 | 306 | 8.0 | 19.3 | 0.00 | 0.00 | 0.00 | 44 | 1014.3 |
| 20260503231736 | 16 | 315 | 8.0 | 19.3 | 0.00 | 0.00 | 0.00 | 44 | 1014.3 |
| 20260503231645 | 16 | 316 | 3.2 | 19.3 | 0.00 | 0.00 | 0.00 | 43 | 1014.3 |
| 20260503231524 | 16 | 308 | 8.0 | 19.3 | 0.00 | 0.00 | 0.00 | 43 | 1014.3 |
| 20260503231443 | 16 | 304 | 4.8 | 19.3 | 0.00 | 0.00 | 0.00 | 43 | 1014.3 |
| 20260503231340 | 16 | 296 | 1.6 | 19.3 | 0.00 | 0.00 | 0.00 | 43 | 1014.3 |
| 20260503231238 | 16 | 332 | 9.7 | 19.3 | 0.00 | 0.00 | 0.00 | 42 | 1014.3 |
| 20260503231137 | 16 | 322 | 6.4 | 16.1 | 0.00 | 0.00 | 0.00 | 43 | 1014.3 |
| 20260503231057 | 16 | 306 | 9.7 | 16.1 | 0.00 | 0.00 | 0.00 | 42 | 1014.3 |
| 20260503230955 | 16 | 298 | 8.0 | 16.1 | 0.00 | 0.00 | 0.00 | 41 | 1014.3 |
| 20260503230836 | 16 | 329 | 8.0 | 16.1 | 0.00 | 0.00 | 0.00 | 43 | 1014.3 |
| 20260503230754 | 16 | 319 | 11.3 | 16.1 | 0.00 | 0.00 | 0.00 | 42 | 1014.3 |
| 20260503230631 | 16 | 322 | 8.0 | 16.1 | 0.00 | 0.00 | 0.00 | 42 | 1014.3 |
| 20260503230531 | 16 | 323 | 8.0 | 16.1 | 0.00 | 0.00 | 0.00 | 42 | 1014.3 |
| 20260503230430 | 16 | 315 | 4.8 | 16.1 | 0.00 | 0.00 | 0.00 | 42 | 1014.3 |
| 20260503230349 | 16 | 318 | 8.0 | 16.1 | 0.00 | 0.00 | 0.00 | 41 | 1014.3 |
| 20260503230225 | 16 | 319 | 3.2 | 16.1 | 0.00 | 0.00 | 0.00 | 42 | 1014.3 |
| 20260503230158 | 16 | 322 | 3.2 | 20.9 | 0.00 | 0.00 | 0.00 | 42 | 1014.3 |
| 20260503230041 | 16 | 326 | 4.8 | 20.9 | 0.00 | 0.00 | 0.00 | 42 | 1014.3 |
| 20260503225939 | 16 | 304 | 1.6 | 20.9 | 0.00 | 0.00 | 0.00 | 43 | 1014.3 |
| 20260503225837 | 16 | 316 | 6.4 | 20.9 | 0.00 | 0.00 | 0.00 | 43 | 1014.3 |
| 20260503225736 | 16 | 285 | 6.4 | 20.9 | 0.00 | 0.00 | 0.00 | 43 | 1014.3 |
| 20260503225634 | 16 | 277 | 4.8 | 20.9 | 0.00 | 0.00 | 0.00 | 42 | 1014.3 |
| 20260503225533 | 16 | 295 | 8.0 | 20.9 | 0.00 | 0.00 | 0.00 | 42 | 1014.3 |
| 20260503225435 | 16 | 289 | 9.7 | 20.9 | 0.00 | 0.00 | 0.00 | 43 | 1014.3 |
| 20260503225333 | 16 | 315 | 14.5 | 20.9 | 0.00 | 0.00 | 0.00 | 45 | 1014.3 |
| 20260503225233 | 16 | 322 | 11.3 | 19.3 | 0.00 | 0.00 | 0.00 | 44 | 1014.3 |
| 20260503225131 | 16 | 306 | 11.3 | 20.9 | 0.00 | 0.00 | 0.00 | 44 | 1014.3 |
| 20260503225050 | 16 | 316 | 11.3 | 20.9 | 0.00 | 0.00 | 0.00 | 42 | 1014.3 |
| 20260503224927 | 16 | 318 | 1.6 | 20.9 | 0.00 | 0.00 | 0.00 | 41 | 1014.3 |
| 20260503224846 | 16 | 315 | 3.2 | 20.9 | 0.00 | 0.00 | 0.00 | 41 | 1014.3 |
| 20260503224735 | 16 | 319 | 6.4 | 20.9 | 0.00 | 0.00 | 0.00 | 41 | 1014.3 |
| 20260503224648 | 16 | 319 | 9.7 | 20.9 | 0.00 | 0.00 | 0.00 | 42 | 1014.3 |
| 20260503224545 | 16 | 320 | 4.8 | 20.9 | 0.00 | 0.00 | 0.00 | 41 | 1014.3 |
| 20260503224504 | 16 | 315 | 8.0 | 20.9 | 0.00 | 0.00 | 0.00 | 40 | 1014.3 |
| 20260503224342 | 16 | 326 | 12.9 | 20.9 | 0.00 | 0.00 | 0.00 | 40 | 1014.4 |
| 20260503224242 | 16 | 316 | 11.3 | 20.9 | 0.00 | 0.00 | 0.00 | 40 | 1014.4 |